GEFSMW_500_meanwind_000.txt.gz
Wind_Speed
30 28 26 26 29 28 26 23 19 23 25 23 22 22 25 27 29 31 31 30 29 32 35 37 39 42 43 44 46 45 43 42 40 40 42 44 46 47 49 52 55 57 60
30 28 27 26 28 28 25 24 21 23 26 25 24 25 27 28 30 29 28 28 30 34 37 40 41 43 44 44 41 39 39 41 42 43 45 46 48 51 54 57 59 62 64
30 27 27 28 27 28 27 26 24 24 26 27 27 28 29 29 27 26 27 31 35 38 40 41 42 42 40 37 37 39 41 44 47 49 51 53 54 55 56 59 62 64 65
28 27 27 29 28 28 28 28 27 26 27 29 30 30 29 28 28 29 32 37 39 39 41 42 41 38 37 38 40 43 45 47 50 54 59 62 65 66 65 63 64 66 67
28 27 27 28 27 27 28 29 29 29 30 31 31 30 28 28 30 33 37 39 40 41 42 40 38 39 39 41 44 47 49 52 55 58 61 64 67 71 73 71 69 67 67
27 27 26 26 26 27 27 28 29 30 30 32 31 29 29 31 33 36 39 39 40 41 39 38 39 41 42 44 46 49 53 56 59 62 65 67 68 68 69 70 71 74 75
27 26 27 27 27 27 28 28 29 29 30 30 30 30 32 34 36 38 38 38 39 39 39 40 41 42 44 47 50 53 57 60 63 66 67 68 67 68 70 73 75 77 79
29 28 28 28 29 29 28 28 28 29 30 29 31 33 35 37 37 38 38 38 38 39 40 42 43 45 48 51 55 58 61 65 67 67 66 65 66 69 73 79 83 85 86
27 27 29 29 29 29 28 28 28 28 29 30 33 35 37 36 37 38 39 38 39 40 41 43 46 49 52 55 58 61 65 67 67 65 65 66 69 73 79 84 90 95 97
26 26 27 30 30 30 29 28 27 29 30 32 35 36 35 35 36 38 38 39 41 42 43 46 49 53 56 59 63 67 68 67 65 65 67 71 75 80 85 90 95 101 107
26 28 29 28 29 29 29 29 29 30 31 33 34 33 34 35 36 36 39 41 43 45 47 50 53 56 60 64 67 69 68 65 65 68 72 77 82 86 90 96 102 108 115
25 26 26 25 25 26 28 28 29 31 32 32 32 33 34 34 35 38 41 43 45 48 50 53 56 60 64 68 69 67 65 66 69 74 79 83 87 92 98 104 110 115 120
22 22 22 22 23 25 26 27 28 29 30 31 32 33 33 35 37 41 43 45 49 51 53 56 60 64 68 69 67 65 66 69 74 80 85 90 94 100 106 112 117 120 116
19 19 20 22 23 24 24 25 27 29 30 30 31 32 34 37 40 43 46 49 50 53 56 60 65 68 69 67 65 66 69 74 80 86 92 98 103 108 114 118 119 113 98
15 17 20 22 22 23 24 25 27 28 28 30 31 34 36 40 43 45 48 50 52 55 59 64 68 70 67 65 66 69 74 80 85 92 99 105 110 115 119 117 107 95 86
11 14 17 19 20 21 23 25 26 27 28 31 33 36 39 42 44 46 48 51 54 59 64 69 69 66 65 67 71 76 80 86 93 99 106 111 115 118 112 99 91 89 87
10 13 15 16 18 21 23 25 25 27 30 33 36 39 42 44 46 47 49 53 58 63 68 68 64 64 67 72 77 82 87 94 101 107 112 115 115 106 95 90 88 84 80
15 17 17 18 20 22 23 24 26 29 32 35 39 42 44 46 46 48 52 57 62 66 66 63 64 67 72 77 81 86 93 100 105 110 115 112 100 90 88 86 80 75 68
14 16 18 19 21 22 23 25 28 31 35 38 41 43 43 44 47 51 56 60 64 63 61 62 66 72 77 81 86 92 98 103 108 113 108 96 88 85 81 75 69 60 47
16 18 19 20 21 23 25 28 31 33 36 37 38 40 43 46 50 55 59 61 59 58 60 65 71 75 81 87 92 97 102 107 110 103 90 84 81 75 69 62 53 39 30
18 18 18 20 22 25 27 30 32 34 36 38 40 43 46 50 53 56 58 56 56 59 64 68 73 80 86 91 96 101 106 108 102 88 80 75 70 65 55 46 38 31 24
16 17 19 21 24 27 30 32 34 36 38 41 43 46 49 52 54 53 53 55 58 62 66 70 76 83 88 94 99 105 107 100 87 79 72 66 61 52 40 34 28 24 21
18 20 23 26 27 29 31 33 36 38 41 43 45 47 50 51 50 51 53 57 60 64 69 74 81 87 93 97 102 104 96 83 77 70 63 56 48 39 31 26 23 20 17
21 22 24 26 28 31 33 36 38 39 41 43 46 48 47 48 50 52 55 59 63 69 75 81 87 92 96 100 101 95 81 75 69 61 53 46 41 32 24 24 21 17 17
19 22 25 28 30 32 34 35 36 38 42 44 45 45 46 48 50 54 57 63 69 75 81 87 92 95 98 99 94 81 74 67 59 51 44 37 28 24 28 25 20 19 18
21 24 27 29 31 32 33 35 38 40 41 42 44 46 47 49 52 56 63 70 76 82 87 92 95 98 97 90 79 72 66 57 48 42 33 24 24 26 24 20 20 19 18

GEFSMW_500_meanwind_006.txt.gz
Wind_Speed
38 38 35 36 37 36 33 31 31 30 30 29 28 29 30 27 24 24 23 24 26 28 31 30 28 29 32 35 37 38 40 40 39 38 38 39 40 42 43 44 46 49 52
39 38 35 35 36 36 35 32 32 31 30 30 29 28 27 27 26 25 26 26 28 31 32 31 32 34 36 38 39 40 42 41 40 39 39 40 42 45 47 49 52 54 57
40 39 36 35 36 36 36 34 34 34 33 31 29 27 28 29 28 28 29 30 32 34 34 35 36 38 40 41 42 42 42 42 42 42 42 43 44 45 47 52 56 59 60
41 39 37 37 37 37 37 37 36 35 35 32 30 29 29 30 31 31 33 34 35 37 38 38 40 42 43 43 43 43 42 42 43 45 47 50 52 54 53 53 56 59 60
44 41 38 38 38 38 37 38 37 36 34 33 32 32 31 31 32 33 35 37 38 39 40 42 44 44 44 44 44 43 42 43 45 48 51 54 58 61 62 59 59 60 60
45 41 40 41 40 39 38 38 38 37 34 33 34 34 33 33 34 35 37 38 40 41 42 45 46 44 44 44 43 43 44 46 50 53 56 59 62 64 65 64 64 64 62
46 42 41 41 41 39 38 37 37 37 35 34 34 34 33 34 35 36 37 39 41 42 44 45 44 43 44 44 43 44 47 51 54 57 61 64 66 68 70 70 68 67 67
47 42 41 42 40 39 38 37 36 36 35 34 34 33 33 34 35 36 38 40 42 43 44 43 43 44 44 44 45 47 51 55 58 62 64 67 70 73 74 72 72 72 72
47 42 42 42 40 38 37 36 36 36 34 33 32 32 32 33 35 37 40 41 42 42 42 42 43 43 44 45 48 51 55 59 62 65 67 71 75 75 73 73 75 78 79
46 41 41 42 40 38 37 35 35 35 34 32 32 32 32 34 36 37 39 39 40 41 42 43 43 44 46 48 52 55 58 62 64 67 71 75 76 74 74 76 79 83 86
43 39 39 41 40 38 36 35 34 34 34 33 34 34 34 35 35 36 38 39 39 41 42 43 44 47 49 52 55 59 62 64 67 71 75 75 75 75 77 79 83 89 96
39 39 41 41 40 38 36 35 35 35 35 35 36 36 35 35 35 36 37 39 40 41 43 45 47 50 53 56 59 62 63 66 71 74 75 74 75 76 79 85 91 98 104
38 39 42 41 39 37 35 34 35 36 37 37 37 36 35 34 35 36 37 39 40 42 44 47 51 54 57 59 60 62 66 71 74 74 74 74 76 79 85 92 99 105 110
39 40 40 38 36 35 35 35 36 36 36 36 35 33 32 33 34 36 37 38 41 44 48 51 54 55 56 57 62 67 71 73 73 73 74 76 81 87 93 99 106 111 113
38 38 37 35 34 34 35 35 35 35 34 32 30 29 30 32 34 35 37 40 44 47 51 53 53 54 58 63 67 70 71 71 72 73 76 82 87 93 100 106 110 111 107
33 32 32 31 32 33 33 33 33 32 30 27 26 27 30 31 32 35 39 43 47 50 52 52 55 59 63 67 70 70 70 71 73 77 82 88 94 100 106 110 108 102 93
29 29 28 28 28 28 28 28 27 25 24 23 25 27 28 30 34 38 42 46 49 51 53 56 59 62 66 69 69 69 71 73 78 83 89 94 101 107 109 106 97 85 75
24 23 22 21 21 21 20 20 20 20 21 23 24 26 30 34 38 41 45 48 50 53 55 58 62 65 66 66 68 69 72 78 83 89 95 101 106 108 104 95 82 69 59
16 16 15 14 14 14 15 16 17 18 20 23 26 29 33 37 41 44 47 49 52 54 57 60 63 64 64 66 68 72 77 83 89 95 101 106 107 102 92 79 66 54 45
11 11 11 10 11 12 13 15 17 19 22 25 29 32 36 39 42 45 48 50 52 55 58 61 61 62 64 67 71 77 82 88 94 100 105 105 99 87 74 63 52 42 36
9 9 9 10 11 13 15 17 19 21 25 28 31 34 37 40 43 46 48 51 54 56 57 58 60 63 66 71 77 83 88 93 98 102 102 94 82 70 60 50 41 35 34
11 10 11 12 13 15 17 19 21 24 27 30 33 36 39 41 44 46 49 52 53 54 55 57 60 65 71 76 81 87 92 98 102 99 90 78 66 57 48 40 34 33 33
11 11 12 14 15 17 19 21 24 27 29 32 34 37 39 42 45 48 50 51 51 53 55 58 63 69 75 80 85 91 96 100 97 86 74 64 55 46 38 33 32 31 29
12 13 13 14 16 18 20 22 25 28 31 34 36 38 40 43 45 47 48 49 51 53 57 62 68 73 78 84 89 94 98 95 84 72 62 52 43 36 32 31 31 30 30
13 13 13 14 15 18 21 25 28 31 33 34 36 39 41 43 44 46 47 49 53 57 62 67 72 77 83 88 94 98 94 83 71 60 49 40 33 31 32 32 32 31 31
13 13 13 15 18 22 26 28 30 31 33 35 38 39 41 43 44 46 49 52 56 62 67 72 78 83 88 93 96 91 80 70 59 48 38 32 30 30 29 30 31 32 32

GEFSMW_500_meanwind_012.txt.gz
Wind_Speed
46 45 43 41 41 42 41 40 42 42 42 40 39 39 39 38 37 35 34 34 34 35 36 35 34 33 33 34 34 35 36 37 39 41 42 43 43 44 45 45 44 45 47
49 49 47 45 44 45 44 41 41 44 44 43 42 41 40 38 36 35 35 34 34 36 37 36 35 35 36 36 37 38 39 40 42 44 46 47 46 47 48 47 47 49 50
49 50 50 47 46 46 45 43 41 44 46 45 44 43 41 38 35 35 35 35 35 36 37 37 37 38 39 39 40 42 43 43 45 47 48 48 48 48 49 49 51 52 55
49 51 51 49 46 46 45 43 42 44 45 45 44 43 41 37 36 36 36 35 35 35 36 38 39 41 43 43 44 45 46 47 48 49 50 50 51 51 48 48 51 54 57
50 51 51 50 47 46 45 43 43 44 45 45 43 42 40 37 36 36 36 36 36 36 37 39 41 43 44 45 46 47 48 49 51 51 51 51 53 53 53 52 54 56 58
52 51 52 52 49 47 44 43 43 44 45 43 42 41 39 37 37 37 37 38 38 38 39 40 42 44 46 47 48 48 49 51 52 52 53 54 54 55 56 58 59 60 62
53 51 52 52 51 47 43 42 42 42 43 42 41 41 39 38 38 37 38 40 40 40 41 42 44 46 47 48 48 50 51 52 52 53 54 54 55 57 60 63 65 66 67
54 52 51 52 51 48 44 42 41 41 42 41 40 40 40 39 38 38 38 39 40 41 42 42 44 45 46 48 49 51 52 52 53 53 54 56 58 61 63 65 67 69 70
53 52 51 50 50 48 45 43 41 41 41 41 40 40 40 39 38 38 38 39 40 40 41 41 42 44 45 47 50 51 52 52 53 54 57 60 62 63 65 67 70 74 75
51 51 50 49 48 48 46 44 42 41 41 41 41 40 39 38 37 37 37 38 39 39 39 40 41 43 45 48 50 51 51 52 55 58 60 62 63 64 68 72 74 75 76
47 49 49 48 47 47 46 44 42 42 42 41 40 39 39 38 36 36 37 37 38 39 40 41 42 45 47 49 50 51 52 55 58 60 62 63 66 69 72 73 74 76 77
45 48 48 46 45 45 45 43 42 42 42 41 40 39 38 37 37 37 37 38 39 40 41 42 44 46 48 49 50 53 55 58 60 62 64 67 69 71 72 74 76 77 80
44 47 46 45 43 43 43 42 42 42 42 40 39 38 37 37 37 37 37 38 38 40 41 43 45 46 48 50 53 56 58 60 63 65 67 69 70 72 74 76 78 81 85
43 45 44 43 41 41 41 41 41 42 41 39 37 37 36 36 37 38 38 38 38 39 41 43 45 47 49 52 55 58 60 63 65 67 68 70 72 74 76 78 82 87 91
40 42 42 40 39 39 39 40 41 40 38 37 36 35 35 36 37 38 38 38 38 38 41 44 46 48 52 55 58 60 62 64 66 68 69 71 73 75 79 84 88 94 99
36 38 38 37 37 37 38 38 37 36 35 34 34 34 35 37 37 37 37 37 37 40 42 44 47 51 54 57 59 62 64 66 67 69 70 72 75 79 84 89 95 100 105
31 34 35 35 35 35 34 34 33 32 32 32 32 34 35 35 35 34 34 36 38 40 43 46 50 53 56 58 61 63 65 67 68 70 72 75 79 84 89 95 100 103 102
28 29 30 30 30 30 30 29 28 28 28 30 31 32 32 31 31 32 34 36 39 42 45 48 52 55 57 60 62 64 65 67 69 71 75 80 85 91 96 100 102 97 86
25 25 26 25 25 25 25 25 25 26 27 28 28 28 28 28 30 32 34 37 41 44 47 50 53 55 58 60 62 64 65 67 70 75 80 85 90 96 100 100 94 81 67
21 23 23 23 24 24 23 23 23 23 23 24 24 24 26 28 30 33 36 40 43 45 48 51 53 56 58 60 62 64 66 69 74 79 85 90 96 99 98 89 75 60 50
17 18 19 19 18 18 18 18 19 19 19 20 22 23 25 28 32 35 39 41 44 46 49 52 54 56 58 59 62 65 70 74 79 84 89 95 98 94 84 70 56 47 42
13 13 14 14 14 14 14 14 15 16 18 19 21 24 27 31 34 37 39 41 44 47 49 52 54 56 58 61 65 70 74 79 83 89 94 95 90 78 63 52 44 40 39
9 9 10 11 11 12 13 13 14 15 17 19 23 26 29 32 35 37 39 42 45 47 49 51 53 56 60 64 68 73 78 83 88 92 92 85 72 58 47 41 38 37 36
7 8 9 9 10 10 11 12 13 15 18 21 25 28 31 33 35 37 40 43 45 47 49 51 54 58 63 67 72 76 81 87 90 88 79 65 53 44 39 37 35 33 33
8 8 8 8 9 10 11 12 14 17 21 25 28 30 31 33 36 39 41 43 45 46 49 52 56 61 66 70 75 81 86 89 87 76 61 49 42 38 35 33 32 31 31
7 7 8 10 11 12 13 15 19 23 25 28 29 30 32 35 37 39 41 42 45 48 51 55 60 65 70 75 80 86 89 85 73 58 45 38 35 32 30 29 30 30 30

GEFSMW_500_meanwind_018.txt.gz
Wind_Speed
37 37 36 36 38 40 43 43 41 37 37 35 35 37 39 40 39 37 37 37 36 36 36 37 39 40 40 39 40 39 39 39 40 40 40 41 42 42 42 42 43 44 44
42 41 40 39 39 40 44 46 45 42 40 38 38 40 40 39 38 38 39 38 37 37 37 38 39 40 40 40 40 40 39 40 41 42 43 44 45 45 46 46 46 46 47
46 46 46 44 43 42 44 46 47 46 45 43 42 42 40 39 39 40 40 40 39 39 38 38 39 40 40 40 40 40 40 41 43 44 46 47 48 47 47 47 47 48 49
51 52 51 50 49 47 46 46 47 49 48 47 45 43 41 41 41 42 42 41 40 39 38 38 39 40 40 41 41 41 42 43 44 46 48 49 50 49 48 47 48 49 50
58 58 57 56 54 52 51 49 49 50 50 48 47 46 44 43 43 43 41 40 40 38 38 38 39 40 41 41 42 43 44 46 47 48 49 50 50 49 49 48 49 51 52
65 64 63 63 60 57 55 53 52 51 49 49 48 47 46 44 44 43 42 41 40 39 38 38 39 40 40 41 43 44 46 48 49 50 50 50 49 50 51 51 51 51 52
68 68 67 66 64 62 60 57 55 52 49 49 48 47 47 45 44 43 43 41 40 39 39 39 40 40 41 41 43 45 46 47 48 49 49 50 50 52 53 54 54 53 53
64 66 67 67 66 64 62 60 57 53 50 49 48 48 47 45 44 43 42 40 40 39 39 40 40 41 41 42 43 45 46 47 47 48 49 51 52 54 55 56 56 56 57
56 58 60 61 62 63 62 60 58 55 52 50 49 48 46 45 44 43 41 40 40 40 40 40 40 40 41 42 44 44 45 46 47 49 51 52 54 54 55 57 59 62 63
49 50 51 53 55 59 60 59 58 55 52 50 49 47 45 45 44 41 40 39 40 40 40 39 39 39 41 42 43 44 45 48 49 51 52 54 55 56 57 60 63 65 67
45 44 43 44 48 53 56 57 56 54 52 49 47 45 44 44 42 40 39 39 39 39 38 37 38 39 40 42 43 45 47 49 51 52 54 55 56 58 61 64 65 67 68
42 41 39 39 43 48 52 54 54 52 49 46 44 43 43 43 40 39 38 38 38 38 37 37 38 39 40 42 44 46 49 50 52 54 56 57 59 62 64 65 66 67 68
39 39 36 36 39 43 48 50 51 48 45 42 42 42 42 40 38 37 36 36 37 37 36 37 38 39 41 43 46 49 50 52 54 56 58 61 63 64 65 66 67 68 70
35 34 31 31 35 40 43 45 45 42 40 40 40 41 40 37 36 35 35 35 36 36 37 38 38 40 43 46 48 50 52 54 57 59 61 63 64 65 66 66 68 70 73
26 24 24 25 31 36 39 40 39 38 38 38 37 37 35 34 33 33 33 34 35 36 37 39 41 43 45 47 49 51 53 56 59 61 62 64 64 65 66 68 71 74 78
13 14 17 22 28 32 34 35 35 35 34 33 32 31 31 31 30 31 32 32 34 36 39 41 43 45 46 48 50 52 56 58 60 61 62 62 63 65 68 71 75 79 84
4 10 16 21 25 28 31 31 31 30 29 28 27 27 27 28 28 30 30 33 35 37 41 44 44 45 46 48 52 55 57 58 59 60 61 62 64 68 71 74 79 85 92
10 14 18 21 23 26 27 27 26 25 24 23 23 25 28 30 30 31 32 34 36 39 41 43 43 44 47 51 53 55 56 57 58 59 61 64 67 71 75 80 85 91 96
16 18 20 21 22 23 23 22 22 22 22 22 23 26 28 28 29 31 33 35 37 39 40 41 43 46 49 51 53 54 55 56 58 61 64 68 71 76 81 86 91 93 91
18 19 19 19 19 19 19 19 19 20 21 23 25 27 29 30 31 30 32 34 35 37 39 41 44 47 49 51 52 53 54 57 60 64 68 73 77 82 88 92 92 87 77
15 17 17 17 17 16 16 17 18 21 24 25 26 26 25 25 25 27 30 32 34 37 40 43 45 47 49 50 51 53 56 58 62 67 72 77 82 88 91 90 83 72 61
11 11 12 14 16 16 17 17 18 18 19 19 18 18 19 21 23 26 29 33 36 39 41 43 45 47 48 49 51 55 58 62 66 71 76 82 87 89 86 77 66 55 46
9 7 7 8 10 10 11 11 12 12 12 13 15 16 19 21 24 28 32 35 37 39 41 43 44 46 48 50 54 58 62 66 71 76 83 87 87 81 71 59 48 41 39
8 7 6 6 5 5 4 4 5 6 9 12 14 17 20 24 28 31 34 36 38 39 41 42 44 46 50 53 57 61 66 71 76 82 85 83 76 65 52 41 36 35 35
4 4 4 4 3 2 0 2 5 8 10 13 16 20 24 28 30 32 34 36 38 40 41 43 45 48 52 56 60 65 70 76 81 82 78 69 57 45 35 31 31 32 34
1 2 1 1 0 2 4 6 8 10 13 17 20 24 27 29 31 33 35 37 38 40 41 44 48 51 55 59 64 70 76 81 80 74 63 51 39 29 26 27 29 32 34

GEFSMW_500_meanwind_024.txt.gz
Wind_Speed
40 41 40 40 40 41 42 41 40 38 37 37 36 36 35 35 35 34 32 32 33 33 33 33 33 33 33 34 34 34 34 35 36 36 36 36 37 37 37 37 38 40 41
43 43 43 43 43 43 44 44 43 42 41 41 40 40 40 40 39 36 34 33 33 34 34 33 33 33 33 35 35 36 36 36 36 36 36 37 37 38 39 40 41 42 44
44 45 45 46 46 46 46 46 46 47 46 45 45 44 44 43 41 38 36 36 37 37 36 35 34 33 34 35 36 36 36 36 37 36 37 38 38 40 40 42 44 45 47
43 44 45 47 48 48 49 49 49 50 50 49 48 47 46 45 44 43 42 42 41 40 39 37 36 35 36 36 36 36 36 36 37 37 38 39 40 41 42 43 44 46 47
43 45 46 48 50 51 52 53 53 53 53 54 52 51 48 47 47 48 47 45 44 43 42 40 38 37 37 37 36 36 36 37 38 39 40 41 41 42 43 44 45 46 47
47 49 51 53 54 55 56 57 58 58 58 58 57 55 53 50 49 49 49 48 47 46 45 43 41 40 39 38 37 37 37 38 39 40 41 41 42 43 44 44 45 46 48
50 53 55 57 58 59 60 61 62 62 63 62 62 60 58 55 52 51 51 50 50 48 47 45 44 42 41 39 38 38 38 39 40 41 42 42 43 44 45 46 47 48 49
49 51 53 55 57 59 60 61 62 63 65 66 66 65 63 59 56 54 53 52 50 49 49 47 45 44 42 40 40 39 40 40 41 42 42 43 44 45 47 48 50 51 52
48 51 53 55 56 58 59 60 61 62 63 65 67 68 66 63 59 56 54 53 51 50 49 47 45 44 42 41 40 41 42 42 42 43 43 44 45 47 49 52 54 56 57
48 52 54 56 57 57 58 58 59 59 61 62 64 67 67 65 61 58 56 54 52 50 48 46 45 44 43 41 41 42 42 42 43 43 44 45 47 50 53 56 58 60 61
50 53 55 56 56 55 54 53 54 55 56 58 60 63 64 64 62 59 56 54 52 49 46 44 43 43 42 41 42 42 43 43 43 44 45 47 50 54 57 59 61 62 64
49 51 52 53 51 49 47 46 46 48 50 53 55 58 61 61 60 57 55 52 50 47 44 43 42 41 40 41 42 42 43 43 44 45 47 51 54 57 60 61 62 64 66
46 47 48 46 44 42 40 40 41 42 45 47 49 52 56 58 57 54 52 49 47 44 42 41 40 39 40 41 41 42 42 43 45 47 51 54 57 59 61 62 64 65 66
40 40 38 35 32 32 33 33 34 36 38 41 43 46 50 52 52 50 48 45 43 40 39 38 38 38 39 39 40 41 42 44 47 51 54 57 59 60 62 63 65 66 67
34 31 27 22 19 20 23 25 27 29 31 33 34 38 43 45 45 45 43 40 38 37 36 36 36 36 37 38 39 41 44 47 50 53 56 57 59 61 63 64 65 66 67
28 24 19 13 9 10 13 17 20 22 24 25 28 32 35 38 39 38 36 35 34 34 33 34 34 35 37 38 41 45 48 51 52 54 56 58 60 62 63 64 66 68 71
24 21 17 12 6 1 5 9 14 18 20 23 26 28 30 32 32 31 31 31 32 31 32 33 33 36 38 42 45 48 49 50 51 54 56 58 60 61 63 64 67 71 74
21 18 15 13 11 10 9 11 14 17 19 21 23 26 27 28 27 28 27 28 28 30 32 33 36 39 41 43 44 45 47 50 52 55 57 58 60 62 64 66 69 74 78
18 16 14 12 12 13 14 15 17 18 19 20 22 23 23 23 24 25 26 27 28 31 35 37 38 39 40 41 42 45 48 51 53 56 57 59 61 64 67 70 74 78 81
16 14 12 12 12 13 15 16 18 18 19 19 18 18 20 21 22 22 25 27 29 31 31 33 34 35 38 41 44 47 49 51 54 56 58 61 64 67 71 74 77 78 78
14 13 12 11 11 11 12 14 14 15 15 14 13 14 16 17 19 21 23 24 25 26 27 29 32 35 38 42 45 47 49 52 54 57 60 63 67 70 73 76 76 75 71
13 12 11 10 9 9 9 10 9 9 9 8 8 10 12 14 16 16 18 19 21 23 26 30 34 37 40 43 46 49 51 53 56 59 63 66 70 72 74 74 72 67 60
12 11 10 9 9 8 6 6 5 5 5 6 6 6 7 9 10 12 15 18 22 26 29 33 36 39 42 45 47 50 53 56 59 63 66 70 72 73 73 70 63 55 47
8 8 9 9 8 8 7 6 5 3 2 1 1 3 6 8 11 14 18 22 26 29 32 35 38 41 43 46 49 53 56 60 63 67 70 72 73 72 67 58 49 42 38
5 4 5 6 6 6 5 4 3 3 2 3 5 7 10 13 16 19 22 25 28 31 34 37 39 42 45 49 53 57 61 64 68 70 72 72 69 62 52 44 38 34 32
5 4 3 3 3 3 3 4 4 5 6 8 10 13 16 18 21 23 26 29 31 33 35 38 41 45 49 53 57 62 65 68 70 70 69 66 58 47 39 34 31 29 29

GEFSMW_500_meanwind_030.txt.gz
Wind_Speed
43 43 44 43 43 42 42 42 42 42 43 43 44 43 42 41 41 40 39 39 37 36 35 35 35 35 34 34 34 34 34 34 34 34 34 34 34 35 36 36 36 35 35
45 45 46 46 46 45 45 44 45 45 46 46 46 46 46 45 45 45 44 41 39 38 38 38 38 38 37 37 36 36 35 35 35 35 35 35 36 36 36 36 36 36 36
46 46 47 48 48 48 47 48 48 49 49 50 50 49 49 49 48 47 45 43 42 42 42 42 42 41 40 39 38 38 38 38 38 38 38 37 37 38 38 38 37 37 38
44 45 46 47 48 48 49 49 50 51 52 53 53 52 51 50 49 47 47 46 46 46 46 46 46 45 44 43 42 41 40 40 40 40 39 39 40 39 39 39 39 39 40
42 43 44 45 47 48 48 49 50 51 53 55 56 56 55 54 52 51 50 50 49 49 49 49 49 48 48 46 45 44 43 42 41 41 41 41 41 41 41 40 41 41 42
40 41 42 44 45 47 48 50 51 52 54 55 57 58 58 57 56 54 53 52 52 51 50 50 50 50 50 49 48 47 46 44 43 43 43 43 43 43 43 43 43 43 44
38 40 42 43 45 47 50 52 53 55 57 59 60 60 61 61 60 58 57 56 55 53 52 52 51 51 51 51 50 49 48 46 45 45 45 45 45 45 45 45 45 46 46
37 40 42 45 47 49 52 54 56 59 61 63 64 65 65 65 65 64 63 61 58 56 55 54 54 53 53 52 51 51 49 48 47 46 46 46 46 46 46 47 47 47 48
37 39 42 45 47 50 53 55 58 60 63 65 67 68 69 69 69 69 68 66 63 61 59 57 56 55 54 53 52 52 51 49 48 48 47 47 47 47 47 48 48 49 50
35 38 41 44 47 49 52 55 58 60 63 65 67 69 70 71 72 72 71 70 68 65 62 60 58 56 55 54 53 52 51 50 49 49 48 48 48 48 49 50 50 51 52
34 37 39 42 45 48 50 53 56 59 61 63 65 67 68 70 71 71 71 71 70 68 65 63 60 58 57 55 54 52 51 50 49 49 49 48 51 51 51 52 53 54 55
33 35 37 39 42 45 47 50 53 56 58 61 62 63 63 65 67 68 68 69 69 68 66 63 61 60 58 56 55 53 51 50 50 49 49 50 52 52 54 55 56 57 58
31 32 34 36 39 41 44 47 49 51 52 53 54 55 57 58 60 62 63 64 64 64 64 63 61 59 58 56 54 52 51 50 49 49 49 51 52 54 56 57 58 60 62
28 29 31 33 36 39 41 42 42 41 40 40 41 42 45 48 51 54 56 58 58 59 59 59 58 57 56 54 52 51 50 48 48 48 49 52 54 57 58 60 62 63 65
25 27 28 30 33 35 36 36 34 31 28 27 28 31 34 39 42 45 47 49 51 51 51 52 52 52 51 50 49 48 47 46 46 47 49 53 56 58 61 63 64 66 66
24 25 25 27 29 32 33 32 28 24 21 18 18 20 23 27 30 33 35 37 39 41 42 44 45 45 45 45 44 43 43 44 45 47 50 53 57 59 62 64 65 65 66
22 23 23 23 25 27 29 28 24 20 16 13 11 12 15 19 20 22 24 27 29 31 33 35 37 39 40 40 40 40 42 43 45 48 51 55 58 60 61 63 64 65 67
21 21 21 21 23 24 24 24 22 18 14 10 6 5 7 10 14 17 18 20 22 24 26 29 33 34 36 37 38 39 42 45 47 50 52 54 57 59 61 63 64 65 68
19 19 19 19 20 20 20 20 19 17 16 11 6 3 3 7 9 12 15 17 19 21 23 25 27 29 31 34 36 38 41 43 45 47 50 53 56 59 60 62 64 66 69
18 18 18 16 17 17 18 17 17 17 17 15 12 9 9 7 7 8 10 13 15 16 18 21 24 27 29 32 35 36 39 41 43 47 50 53 55 58 60 63 65 68 71
18 17 16 15 14 14 15 15 14 15 15 15 13 11 8 6 6 6 6 7 10 12 15 19 22 23 25 28 31 34 37 40 44 47 50 53 56 60 63 66 69 71 71
16 15 14 14 13 12 12 12 13 14 14 14 12 9 7 5 4 2 1 2 5 8 11 14 17 20 23 25 29 33 36 40 43 47 51 55 59 63 66 69 71 71 70
14 13 13 12 12 11 11 11 11 12 12 12 13 12 10 8 6 5 4 4 6 9 12 15 18 22 25 28 31 34 37 41 45 50 54 58 62 66 68 69 68 66 63
13 12 12 11 10 10 10 11 11 11 11 11 11 10 10 9 8 8 8 9 11 14 16 19 22 24 27 29 32 36 40 45 49 54 59 62 65 66 66 64 61 56 49
12 12 11 10 9 9 9 9 10 10 10 11 11 11 11 11 11 11 12 14 15 17 19 21 23 26 29 32 36 40 44 48 53 58 62 64 63 62 59 54 48 42 37
13 12 11 10 9 9 9 9 10 11 11 12 12 13 13 13 14 15 16 17 18 20 21 23 26 29 32 36 39 43 48 53 57 60 61 60 58 54 49 43 38 34 31

GEFSMW_500_meanwind_036.txt.gz
Wind_Speed
41 40 40 39 39 39 39 39 39 39 41 42 42 43 44 45 45 45 46 46 46 46 45 44 43 43 42 42 41 40 39 37 36 36 36 35 33 32 32 31 31 32 32
43 43 42 42 41 41 41 41 41 42 43 43 44 45 46 47 48 49 49 49 49 49 48 48 47 47 46 46 45 44 42 41 40 39 38 37 36 35 35 34 35 35 35
44 44 44 44 43 43 43 43 43 44 44 45 46 47 48 49 50 50 50 50 51 52 52 51 51 51 50 49 48 48 46 44 43 42 41 40 38 38 38 37 38 38 38
44 45 45 45 45 44 44 44 44 44 45 46 46 47 48 49 50 51 52 53 54 55 55 55 54 54 54 52 51 50 50 48 47 45 44 44 43 42 40 40 41 41 41
43 43 44 44 44 44 44 44 44 44 45 46 47 48 49 49 50 52 53 54 55 56 57 57 57 57 56 55 54 53 52 51 50 49 48 47 46 45 44 43 44 43 43
40 40 41 41 42 42 42 42 43 43 44 45 46 47 49 50 51 52 54 55 56 57 58 59 60 60 59 58 57 56 55 54 53 52 51 50 50 48 47 46 46 46 46
35 35 36 37 38 39 39 40 41 42 44 45 47 48 50 51 53 54 56 57 58 59 60 60 61 62 62 62 61 59 58 58 57 55 54 53 52 50 49 48 48 47 47
31 32 33 34 35 36 38 39 41 42 44 46 48 51 53 54 56 58 59 61 61 62 63 63 63 63 63 63 63 62 61 60 59 58 57 55 54 53 52 51 50 49 49
28 29 30 32 33 35 37 38 40 43 45 47 50 52 55 57 59 61 63 64 65 66 66 67 66 65 65 65 64 64 63 62 61 60 59 58 56 55 53 53 52 51 51
26 27 28 30 32 34 36 38 40 42 44 47 49 52 54 56 59 62 64 66 68 69 69 69 69 68 66 66 65 64 64 63 63 62 60 59 58 56 55 54 53 54 54
24 26 28 30 31 33 35 36 38 40 42 44 46 49 52 55 59 62 64 67 68 69 69 69 69 68 67 66 65 64 64 63 63 63 62 60 59 58 57 57 56 56 57
23 25 27 28 30 31 33 34 35 37 39 41 43 47 51 54 56 58 60 62 63 64 64 64 64 63 62 62 62 62 63 62 62 61 61 60 60 59 59 59 58 58 59
22 24 25 26 28 29 30 31 32 33 35 37 42 44 46 48 50 51 52 52 53 54 55 56 56 56 56 56 56 56 57 58 59 59 59 59 60 59 60 58 58 58 59
21 23 24 25 25 26 27 28 28 29 31 35 38 39 41 42 42 41 40 40 40 42 44 46 47 49 49 50 49 50 51 52 54 55 57 57 58 58 58 58 58 59 61
19 21 22 23 23 23 24 24 24 26 29 31 32 33 34 34 34 32 30 29 29 31 33 36 39 40 41 42 43 44 44 45 46 48 50 52 53 54 55 56 57 59 61
18 20 21 21 21 21 21 21 22 24 25 27 28 28 28 28 28 26 23 21 21 22 25 27 29 30 31 33 35 37 38 39 41 43 45 47 48 50 52 54 56 58 61
17 18 19 19 19 19 19 20 20 21 22 23 24 24 24 24 23 20 18 16 15 16 18 19 20 22 23 25 26 28 30 32 35 37 39 42 45 47 50 53 56 59 60
16 16 16 17 17 17 18 18 18 18 19 20 21 21 21 21 19 17 15 12 10 8 9 10 12 14 16 17 20 22 24 27 29 32 37 39 43 46 49 51 53 54 56
15 15 15 16 16 16 16 16 15 16 17 17 18 18 18 18 16 15 13 11 8 6 4 4 6 8 11 14 16 19 22 25 29 32 35 38 41 43 46 48 50 52 55
14 15 15 15 15 15 15 14 14 14 15 15 16 16 16 16 15 14 13 11 10 8 5 3 3 6 8 11 14 17 20 23 26 29 32 35 37 40 43 45 49 52 56
14 14 14 14 14 14 13 13 13 13 13 14 14 14 15 15 14 14 13 11 10 8 6 5 4 5 7 10 13 16 18 21 24 27 30 33 36 40 43 47 51 54 58
13 13 13 13 13 13 13 12 12 12 12 13 13 14 14 14 14 14 13 12 11 9 8 7 7 7 9 11 13 15 18 22 25 28 31 35 38 42 46 49 53 56 58
14 14 14 14 13 13 13 12 12 12 12 13 13 14 14 14 14 13 13 12 11 11 10 10 10 11 12 14 16 18 21 24 27 31 34 38 41 45 48 52 54 57 57
15 15 14 14 14 13 13 13 12 12 12 13 13 14 14 14 14 13 13 13 13 13 13 13 13 14 16 17 19 22 24 27 31 34 37 40 44 47 51 53 55 56 54
16 16 16 15 14 14 14 14 14 13 13 13 14 15 15 15 14 14 14 14 15 15 15 16 17 18 19 21 23 26 29 31 34 37 40 43 47 50 52 54 54 52 49
17 17 17 16 15 15 15 15 15 15 15 15 15 16 16 16 16 16 16 17 17 18 18 19 20 22 23 25 28 30 33 35 37 40 43 46 49 51 52 51 49 45 42

GEFSMW_500_meanwind_042.txt.gz
Wind_Speed
39 38 37 37 36 36 36 36 36 35 35 35 36 36 36 37 38 39 40 41 42 42 43 43 43 44 44 44 44 45 45 46 46 46 45 45 43 41 40 39 37 36 36
38 37 37 37 37 36 36 37 37 37 37 37 38 39 39 39 40 41 42 43 45 46 47 47 47 47 48 48 48 48 49 49 49 49 49 48 47 44 43 43 41 40 39
38 37 36 36 36 36 36 37 37 38 39 39 39 40 41 42 42 43 44 45 47 48 49 50 50 51 51 51 51 52 52 52 53 53 53 51 50 49 47 46 45 44 42
37 36 35 35 35 36 36 37 38 39 39 40 41 42 43 43 44 45 46 46 48 49 50 51 52 53 54 54 54 55 55 55 55 56 56 55 54 53 51 49 48 47 46
36 35 35 36 36 36 37 38 39 39 40 41 42 43 43 44 44 45 46 47 48 49 50 51 53 55 56 57 57 57 58 58 58 58 58 59 58 56 55 53 51 50 50
37 37 36 37 37 38 39 39 39 40 40 41 42 42 43 44 44 45 46 47 48 49 50 51 53 55 56 58 59 60 61 61 61 61 61 61 60 59 58 57 55 54 52
37 37 37 37 38 38 38 39 39 40 40 40 41 41 42 43 44 45 46 47 48 49 50 52 53 55 57 59 60 62 63 64 64 64 63 63 62 61 60 59 59 57 55
36 36 36 37 37 37 37 38 38 38 38 39 40 41 42 42 43 43 44 45 46 48 49 51 53 55 57 60 62 64 65 66 66 66 65 64 63 63 62 60 60 59 57
34 34 35 35 36 36 36 36 36 37 37 38 39 40 40 41 41 42 42 43 45 47 49 51 53 56 58 61 64 65 66 67 67 67 66 65 63 62 62 61 60 58 57
33 34 34 34 34 34 34 35 35 36 36 37 37 38 38 39 39 40 41 42 44 46 49 52 54 56 59 61 62 63 64 65 65 65 64 63 62 61 60 60 59 58 57
33 33 33 33 32 33 33 33 33 33 34 35 35 36 37 37 38 39 40 41 44 46 49 51 52 54 56 58 58 59 59 60 60 60 60 60 60 59 58 58 59 58 58
32 32 31 31 31 31 31 31 31 32 32 33 34 34 35 35 36 37 38 40 43 45 46 48 49 51 52 52 51 50 49 50 52 53 54 55 56 56 56 56 57 57 58
30 29 28 28 28 28 28 29 30 30 31 32 32 32 32 33 34 34 36 39 40 41 43 44 45 45 45 44 42 41 41 42 43 45 47 48 50 52 53 54 54 55 56
26 26 25 25 25 26 27 28 29 29 29 29 30 30 31 31 32 32 34 36 37 38 39 40 40 39 38 37 35 35 36 36 37 38 40 42 43 46 48 49 50 51 53
24 23 23 23 24 24 25 26 27 27 27 27 28 28 29 30 31 32 33 34 35 35 36 36 35 34 33 32 31 30 30 30 30 31 33 34 36 39 41 42 44 46 47
22 21 21 21 22 22 22 23 24 25 25 26 27 28 28 29 30 31 31 31 32 32 33 32 31 29 28 28 26 25 25 24 24 25 26 28 29 31 33 35 39 41 44
20 20 19 19 19 20 20 21 22 23 24 25 26 26 27 28 29 29 29 29 29 30 29 28 26 26 25 24 22 21 20 19 18 19 20 21 23 26 28 31 34 36 39
19 17 17 17 17 18 19 19 20 21 22 23 24 25 26 26 26 26 26 26 26 26 26 25 24 23 21 20 20 18 16 13 12 13 15 16 19 21 24 27 31 34 36
16 16 16 16 16 17 17 18 19 20 21 21 22 22 23 23 23 23 24 24 24 24 23 22 22 21 19 18 18 17 15 13 12 13 14 15 17 20 23 26 28 31 34
15 15 15 15 15 16 16 17 18 18 19 19 19 20 20 21 21 21 22 22 22 22 21 20 20 19 19 18 17 16 15 14 14 14 16 17 18 21 23 26 29 32 35
15 15 15 15 15 15 16 16 17 17 17 18 18 19 19 19 20 20 21 21 21 20 20 20 20 19 19 18 17 16 16 16 16 17 19 20 22 24 26 29 32 35 38
16 15 15 15 15 15 16 16 17 17 17 17 18 18 19 19 19 20 20 20 20 20 20 20 20 19 19 19 19 19 19 19 20 21 22 24 26 29 31 34 37 40 42
17 17 17 16 16 16 16 17 17 18 18 18 18 19 19 19 20 20 21 21 21 21 21 20 20 20 20 20 20 21 22 22 24 25 27 28 30 33 35 38 40 43 46
19 18 18 18 18 18 18 18 18 19 19 19 19 20 20 20 21 21 21 22 21 21 21 21 21 21 21 22 23 24 25 26 28 29 31 32 34 37 39 41 43 46 48
21 20 20 20 19 19 19 19 20 20 20 20 21 21 22 22 22 22 22 23 23 23 22 22 23 23 24 24 25 27 28 29 30 32 34 36 37 39 41 43 45 47 50
22 22 22 21 21 21 21 21 21 21 22 22 22 23 23 23 23 24 24 24 24 24 24 24 25 25 26 27 28 30 31 32 33 35 37 38 40 42 43 46 48 49 51

GEFSMW_500_meanwind_048.txt.gz
Wind_Speed
45 44 44 43 42 41 41 40 39 39 38 37 36 35 35 35 35 35 36 36 37 37 38 38 39 40 41 42 43 44 44 45 46 47 47 48 48 48 48 48 48 47 46
44 44 44 43 42 42 41 41 41 40 39 38 38 37 37 37 37 37 37 38 39 40 41 41 42 43 44 44 45 46 47 47 48 49 50 50 50 49 51 51 51 50 49
44 45 44 43 42 42 42 42 42 41 41 40 39 39 38 38 38 38 39 40 41 42 43 44 45 46 46 47 47 48 49 49 50 51 52 53 52 52 52 52 53 53 52
44 44 43 43 42 42 43 43 43 42 42 41 40 40 39 39 40 40 40 41 42 43 44 46 47 47 48 48 49 49 50 51 51 52 52 54 54 55 55 55 55 55 54
43 43 43 42 42 42 42 43 42 42 42 41 40 39 39 40 40 41 42 43 44 45 45 46 47 48 48 49 49 50 51 51 51 52 53 54 55 56 57 58 57 57 57
43 44 43 42 42 42 42 42 42 41 41 40 40 40 40 41 42 43 44 45 45 46 46 47 48 48 48 48 48 49 50 50 51 53 54 55 57 58 60 61 60 60 59
43 44 43 42 42 42 42 42 41 40 40 40 41 41 42 43 44 45 45 45 46 46 47 47 47 47 47 47 47 48 49 50 52 53 55 56 58 60 61 63 63 63 61
43 43 43 43 42 41 41 41 41 41 41 42 42 43 44 44 44 45 45 45 45 46 46 46 46 46 46 46 47 48 49 51 53 54 56 57 58 60 61 62 62 63 62
41 42 42 41 41 41 41 41 42 42 42 43 43 43 43 43 43 43 43 44 44 44 44 44 44 44 44 45 45 46 48 50 52 53 54 56 57 59 59 60 60 60 61
39 39 40 40 41 41 41 42 42 42 42 42 42 42 42 41 42 42 42 42 42 42 42 42 42 42 42 43 43 44 46 48 49 51 51 53 54 53 53 53 54 55 56
38 38 38 38 39 39 40 40 41 41 41 40 40 40 40 40 40 41 40 40 40 40 40 40 40 40 40 40 41 43 44 46 47 47 48 49 48 47 48 47 47 48 47
37 37 37 38 38 38 38 38 38 38 38 38 38 38 38 38 38 38 38 38 38 37 37 37 37 38 38 39 40 41 42 44 44 45 44 43 42 42 42 42 41 40 41
35 36 36 37 37 37 36 36 35 35 35 35 35 36 36 36 36 36 35 35 35 35 35 35 36 37 38 38 39 40 40 41 41 41 40 38 37 37 37 37 36 35 35
33 34 34 34 34 34 33 32 32 32 32 32 32 33 33 33 33 33 33 32 32 33 33 34 35 36 36 37 38 38 38 37 37 37 36 34 33 33 33 32 31 30 30
30 31 31 30 30 30 29 29 28 28 28 29 29 29 29 30 30 30 30 30 31 31 32 33 34 34 34 35 35 35 35 34 34 33 32 31 30 30 29 29 27 26 26
27 27 27 26 26 26 26 26 26 26 26 25 25 25 26 26 27 27 28 28 29 30 31 31 32 32 33 33 33 32 32 31 30 30 29 28 27 27 26 25 25 24 23
23 23 23 23 23 23 23 23 23 23 22 22 22 23 23 24 24 25 25 26 27 28 29 29 29 30 30 30 30 30 29 28 27 26 26 25 25 24 24 24 23 23 23
21 21 21 21 21 21 21 21 20 20 20 20 20 21 21 21 22 22 23 24 25 26 26 27 27 28 28 28 28 27 27 26 25 25 24 24 24 24 24 24 25 24 25
20 20 20 20 20 20 20 20 19 18 18 18 18 18 18 19 20 20 21 22 23 24 25 26 26 26 27 27 26 26 25 25 25 25 25 25 25 25 26 26 26 26 27
20 20 20 20 20 19 19 19 18 17 17 16 16 17 17 18 18 19 21 22 23 24 24 25 25 26 26 26 25 25 25 25 25 26 26 26 27 27 27 28 29 30 31
21 21 20 20 20 19 18 18 18 17 16 16 16 16 17 18 19 20 21 22 23 24 24 25 25 26 26 25 25 26 26 26 27 27 28 28 29 29 30 31 32 33 34
21 21 20 20 19 19 18 17 17 16 16 16 16 17 17 18 19 21 22 23 24 24 25 26 26 26 26 26 26 27 27 28 29 29 30 31 31 32 33 34 35 36 37
21 21 21 21 20 19 19 18 17 17 17 17 18 18 19 20 21 22 23 24 24 25 26 26 27 27 27 27 28 28 29 30 30 31 32 33 34 34 35 36 37 38 40
22 22 22 22 21 21 20 20 19 19 19 19 19 20 20 21 22 23 24 24 25 26 26 27 28 28 29 29 30 30 31 31 32 33 34 35 35 36 37 38 39 41 42
23 23 23 23 23 23 22 22 21 21 21 21 21 21 22 23 24 25 25 25 26 27 27 28 29 29 30 30 31 31 32 32 33 34 35 36 37 38 39 40 41 43 44
25 25 25 25 25 25 24 24 24 24 24 24 23 24 24 25 25 26 26 27 27 28 28 29 29 30 30 31 31 32 33 33 34 35 36 37 38 40 41 42 44 45 47

GEFSMW_500_meanwind_054.txt.gz
Wind_Speed
48 48 49 49 48 47 46 45 44 43 43 43 42 41 40 40 39 38 37 37 36 36 36 36 36 37 38 38 39 41 42 43 45 47 47 47 47 47 47 48 47 47 47
45 45 46 48 48 47 47 46 45 45 44 44 44 43 42 41 40 40 39 39 38 38 38 38 38 39 40 41 42 43 45 46 48 49 49 48 47 47 47 47 47 47 47
44 44 45 45 46 46 46 47 46 45 45 45 44 44 43 42 41 41 40 40 40 40 40 40 41 42 42 43 44 46 48 49 50 50 51 51 49 48 46 46 46 46 47
43 43 43 44 45 45 46 46 46 46 46 45 45 44 44 43 42 42 42 41 42 42 42 42 43 43 44 45 47 49 50 51 51 51 51 51 50 50 48 46 46 46 47
41 41 42 43 44 45 45 46 46 46 46 46 46 45 45 44 43 43 43 43 44 44 44 44 44 45 46 48 49 50 51 51 51 51 50 50 49 49 49 47 46 47 48
41 42 42 42 43 44 45 45 46 47 47 47 47 46 46 46 45 45 45 45 45 45 45 45 46 47 48 50 50 51 51 51 50 50 49 49 48 48 48 47 47 48 49
43 43 43 43 44 44 45 45 46 47 47 47 47 47 47 46 46 46 46 46 46 46 46 47 48 49 50 50 50 50 49 49 48 48 48 48 47 47 47 47 47 48 49
43 44 44 45 46 46 46 46 46 46 47 47 47 47 47 47 47 46 46 46 46 47 47 48 49 50 50 50 49 48 47 47 46 46 46 46 46 46 46 47 48 49 48
42 44 45 46 47 47 47 47 47 47 47 47 47 47 47 48 47 47 47 47 47 48 48 49 49 49 49 48 47 46 46 45 45 44 44 44 44 45 46 47 48 48 46
41 43 44 45 46 47 48 48 48 48 48 47 47 47 47 47 47 46 46 47 47 48 48 49 49 48 46 45 45 44 44 44 43 43 43 43 44 44 45 46 45 45 44
40 42 44 45 46 47 47 47 47 47 47 48 48 47 47 47 47 47 47 47 48 48 48 47 46 44 43 43 43 43 42 42 42 42 42 43 43 43 44 43 42 42 41
37 39 41 43 44 45 45 46 46 46 47 47 47 47 47 47 47 46 47 46 46 46 45 43 42 42 41 41 41 41 41 41 41 41 42 42 42 41 41 40 40 39 38
34 36 38 40 41 42 43 43 44 44 45 45 45 45 45 45 45 45 45 44 43 42 41 41 40 40 39 39 39 39 39 39 39 40 40 40 40 39 38 38 37 37 35
33 34 35 37 39 39 40 41 41 41 42 42 42 42 42 42 42 42 41 40 40 39 38 38 37 37 37 37 37 36 37 38 38 38 38 38 37 37 36 36 35 34 33
31 32 33 35 36 38 39 39 39 40 40 40 40 40 39 39 38 38 37 37 36 35 35 34 34 34 34 34 34 35 35 35 36 36 36 36 36 35 35 34 33 32 31
31 32 33 34 34 36 37 37 37 37 37 37 37 37 36 35 35 35 34 33 32 32 31 31 31 31 31 32 33 33 33 33 34 34 34 34 34 34 33 33 32 32 31
32 32 33 33 34 35 35 35 35 34 34 33 33 33 33 33 32 31 30 30 29 29 29 28 28 29 29 30 30 31 31 32 33 33 33 33 33 33 32 32 32 32 32
31 32 31 32 32 32 32 32 32 32 32 31 31 31 30 30 29 28 28 27 27 26 26 26 26 27 28 28 29 30 31 31 32 32 32 32 32 32 32 32 32 32 33
28 29 28 28 29 29 29 29 30 30 30 29 28 28 28 27 27 26 26 25 24 24 24 24 25 25 26 27 28 29 30 31 32 32 32 32 32 32 33 33 33 33 34
26 26 26 26 27 27 27 27 27 27 27 26 26 26 26 25 25 24 23 23 22 22 23 23 24 25 27 28 29 30 31 31 32 32 33 33 33 33 33 34 34 35 36
24 24 25 25 25 25 25 25 26 25 25 25 25 25 24 24 23 22 22 21 21 22 23 24 25 26 28 29 30 31 32 32 32 33 33 34 34 34 34 35 35 36 37
22 23 23 24 24 24 24 24 24 24 24 24 24 24 24 23 23 22 22 22 22 23 24 25 26 27 28 30 31 31 32 33 33 33 34 34 35 35 35 36 36 37 38
21 21 21 21 23 23 24 24 24 24 23 23 23 23 23 23 23 22 23 23 23 24 25 27 27 28 29 30 31 32 32 33 33 34 34 35 35 36 37 37 38 39 39
21 21 21 21 22 23 23 23 23 24 24 24 24 24 24 24 24 24 24 25 25 26 28 29 29 30 31 31 32 33 33 33 34 34 35 36 37 38 38 39 39 40 41
21 21 21 22 22 23 23 24 24 24 24 25 25 25 25 25 25 26 26 27 28 28 29 30 31 32 33 33 34 34 34 35 35 37 37 38 38 39 39 40 41 42 43
22 22 22 23 23 24 24 24 25 25 26 26 26 27 27 27 28 28 28 29 30 30 31 32 32 33 34 35 35 36 36 37 37 38 38 39 40 40 41 41 42 43 45

GEFSMW_500_meanwind_060.txt.gz
Wind_Speed
49 49 49 50 49 47 46 46 45 44 45 44 44 43 42 41 40 39 39 38 37 37 36 36 36 36 36 36 37 38 38 39 40 41 41 41 42 43 45 46 47 46 45
49 48 48 50 51 50 49 48 48 47 47 47 47 46 45 44 43 42 42 41 40 40 39 39 38 38 39 39 39 40 41 41 42 43 44 43 43 44 45 47 47 46 45
51 50 49 49 49 50 50 50 49 48 48 48 48 47 47 47 46 45 45 44 43 43 42 42 41 41 41 41 41 42 43 43 44 44 46 46 46 46 45 45 45 45 45
53 52 51 50 49 50 50 50 50 50 50 50 49 48 48 48 48 47 47 46 45 45 44 43 43 42 43 43 43 44 44 45 45 46 46 48 49 49 47 45 43 43 43
52 53 53 52 51 50 50 50 50 50 51 51 51 50 49 49 49 48 48 47 47 46 45 44 44 44 44 44 44 45 45 46 47 47 47 48 49 49 48 46 44 43 43
48 50 52 52 51 50 50 49 49 49 50 50 50 49 49 49 49 49 49 49 48 47 46 46 46 46 46 45 45 46 46 47 47 48 48 48 48 47 46 45 44 43 43
45 46 48 50 50 50 49 49 49 49 49 48 48 48 48 48 48 49 49 48 48 47 47 47 47 47 47 46 47 47 47 48 48 48 48 48 47 46 45 44 44 43 42
42 44 45 47 47 47 48 49 49 48 48 48 48 48 48 48 48 48 48 48 48 48 48 48 47 47 47 47 47 47 47 48 48 48 48 47 46 45 44 44 43 42 42
38 40 42 44 45 46 47 48 48 48 48 47 47 48 48 48 48 48 48 48 48 48 48 48 48 48 48 47 48 48 48 48 48 47 46 46 44 43 43 43 43 42 41
34 36 38 40 42 43 45 46 47 48 48 48 48 48 48 48 49 49 48 48 48 48 48 48 47 47 47 48 48 48 48 47 46 46 45 44 42 42 42 42 41 41 40
33 34 36 37 39 41 43 44 45 47 48 48 49 49 50 50 50 50 50 50 50 49 49 48 48 48 47 47 47 46 46 45 45 44 43 42 41 41 40 40 40 39 39
34 35 36 37 38 40 41 43 45 46 47 48 48 49 49 50 50 51 51 51 50 50 49 49 48 47 46 46 46 45 45 44 43 42 41 40 40 39 38 38 38 37 37
33 34 35 36 38 39 40 42 43 44 45 46 47 48 48 49 49 49 49 48 48 48 48 47 47 46 45 45 44 43 43 41 41 40 39 38 38 37 37 36 36 36 36
32 33 34 36 37 38 39 40 41 42 43 44 45 46 46 46 47 46 46 46 46 45 45 45 44 44 43 43 41 40 39 38 38 37 36 36 35 35 34 34 34 34 34
31 32 33 33 34 36 37 38 39 40 41 42 42 43 44 44 44 44 44 43 43 42 42 42 41 41 40 40 38 38 36 36 35 34 34 34 33 33 32 32 33 33 33
30 31 32 32 33 34 35 36 37 38 39 40 40 41 41 41 41 41 41 41 41 40 40 39 39 38 38 37 36 35 34 33 33 32 31 31 31 31 31 31 32 32 33
30 31 32 32 33 33 34 35 36 37 37 38 38 38 39 39 39 38 37 37 37 37 37 36 36 36 35 35 34 33 31 31 30 30 29 29 29 30 30 31 32 32 32
30 30 31 32 33 33 34 35 35 36 36 36 36 37 37 37 36 36 35 35 35 34 35 34 34 34 33 32 31 30 29 29 29 28 28 28 28 29 30 30 31 31 32
30 30 31 31 32 32 33 33 34 34 35 35 34 34 34 34 34 34 33 33 32 32 32 32 32 31 30 29 29 28 28 27 27 27 28 28 29 29 30 30 31 32 32
28 28 29 29 30 31 31 32 32 32 32 32 32 32 32 32 31 31 31 31 30 30 30 30 29 29 28 28 27 27 27 27 28 28 28 29 29 30 31 31 32 33 33
26 26 27 28 28 28 28 29 29 30 29 28 28 29 29 29 29 29 29 29 28 28 28 28 28 27 27 27 27 27 28 28 29 29 29 30 30 31 32 33 34 34 35
24 24 25 25 26 27 27 27 27 27 27 27 27 27 27 28 28 28 27 27 27 27 27 26 27 27 27 27 27 28 29 29 30 30 31 31 32 33 34 35 35 36 37
23 23 24 24 24 25 26 26 25 25 25 26 26 26 26 26 26 26 26 26 26 26 26 26 27 27 27 27 28 29 29 30 31 32 32 33 34 35 36 36 37 38 38
23 23 23 23 23 24 24 24 24 24 24 24 25 25 25 25 25 25 25 25 25 25 26 26 27 28 28 29 30 30 31 32 32 33 34 34 35 36 37 37 38 39 39
22 23 23 23 23 23 24 23 23 23 23 23 23 24 24 25 25 25 26 26 26 26 26 27 28 28 29 30 31 32 32 33 34 35 36 36 37 38 38 39 39 40 41
23 23 23 23 22 22 23 23 23 23 23 23 23 24 24 24 25 25 25 26 27 27 28 29 30 30 31 32 33 34 34 35 36 37 38 38 39 39 40 40 40 41 42

GEFSMW_500_meanwind_066.txt.gz
Wind_Speed
48 49 49 48 48 48 46 45 44 43 42 41 40 39 38 37 37 38 38 38 38 38 38 37 36 36 35 35 36 36 36 36 37 37 37 37 37 38 39 39 40 42 42
48 48 48 49 48 48 48 47 46 45 44 43 42 41 40 40 39 39 40 41 42 42 41 41 40 39 39 39 39 39 39 39 39 40 40 39 38 39 40 40 41 42 43
47 46 46 47 47 47 47 48 48 47 46 45 45 44 43 42 42 42 42 42 43 44 44 44 43 43 43 43 43 43 42 42 41 42 43 43 41 40 40 41 41 42 43
46 46 46 45 46 46 47 48 48 49 49 48 47 46 46 45 45 45 44 45 45 46 47 47 47 47 46 46 45 45 44 44 43 43 44 44 44 44 42 42 42 43 44
45 46 46 46 45 46 46 47 47 48 48 49 49 49 49 49 48 47 48 49 48 49 49 49 49 49 48 47 47 46 46 45 45 45 45 44 45 44 44 43 44 45 44
45 45 46 46 46 46 46 46 47 47 47 48 49 49 49 49 49 50 50 50 49 49 49 50 49 49 48 48 47 47 46 46 46 46 46 45 44 44 44 44 45 45 45
43 44 44 45 46 47 47 48 48 48 48 48 49 49 49 49 49 50 50 50 50 49 49 49 49 49 49 49 48 48 47 47 47 46 46 45 45 45 45 45 44 44 44
38 40 41 43 44 46 47 48 49 50 50 50 50 50 50 50 50 51 52 52 51 51 50 49 49 49 49 49 48 48 47 47 47 46 46 46 45 46 46 45 45 44 44
35 36 38 39 40 42 45 48 49 50 50 51 51 52 53 53 52 52 52 52 52 51 51 50 49 49 49 49 48 48 48 47 47 47 46 46 46 46 45 45 45 44 44
32 33 35 37 37 38 40 43 46 48 49 51 52 52 53 52 52 52 52 52 51 51 52 51 50 50 50 49 49 49 48 48 48 47 47 47 46 46 45 45 45 44 43
31 31 33 34 35 36 38 40 41 43 45 47 48 49 50 51 52 52 52 52 52 52 51 51 51 51 51 50 50 49 49 48 48 48 47 46 46 45 45 45 44 42 41
30 30 31 32 32 33 35 36 37 39 40 42 43 45 46 48 49 49 50 51 52 52 51 51 51 51 51 51 50 50 49 48 48 47 47 46 45 45 44 43 41 40 38
30 30 30 30 31 31 32 33 34 36 37 38 40 41 43 44 46 47 48 48 49 49 49 50 50 50 49 49 48 48 47 47 46 45 45 45 44 43 42 40 38 37 36
29 29 30 30 30 31 32 33 33 34 36 37 38 40 41 42 43 45 46 47 47 47 47 48 48 47 46 46 46 45 45 45 44 44 43 43 42 41 39 37 35 34 33
28 29 30 31 31 31 32 33 34 35 35 36 37 38 39 40 41 42 43 44 44 45 45 45 45 45 45 45 45 44 44 44 43 42 41 40 39 38 36 34 33 32 31
29 30 30 31 31 32 32 32 33 34 35 36 36 37 38 39 39 40 41 41 42 42 43 43 43 43 43 43 43 43 42 42 41 39 38 37 36 35 34 33 31 30 30
29 30 31 31 31 31 32 32 32 33 34 35 35 36 37 38 38 39 39 40 40 40 40 41 41 41 41 41 41 40 39 38 37 36 35 35 34 32 31 30 30 30 29
30 30 31 32 32 32 32 32 32 33 33 34 35 36 36 37 37 38 38 38 38 38 38 38 39 39 38 38 37 36 36 35 34 33 32 32 31 30 29 29 30 30 29
30 30 30 31 31 31 32 32 33 33 33 34 35 35 36 36 37 37 37 37 37 37 36 36 36 36 36 36 35 34 32 32 31 31 30 29 29 29 30 30 30 30 30
30 30 31 31 31 31 32 32 32 33 33 34 34 35 35 35 35 35 35 35 35 34 34 33 33 33 33 32 32 31 30 29 29 29 29 29 29 30 30 30 30 31 31
30 30 31 31 31 31 31 31 31 32 32 33 33 33 33 33 33 33 33 32 32 31 30 30 30 30 29 29 29 29 29 28 28 28 29 29 29 30 30 30 31 31 32
30 30 30 30 30 30 30 30 30 30 31 31 31 32 32 32 32 31 30 30 29 28 28 28 27 27 28 28 28 28 28 28 28 28 29 29 29 30 31 31 32 32 33
31 31 30 30 30 29 29 29 29 29 29 30 30 31 31 30 29 28 28 27 27 27 27 27 27 27 27 27 27 27 27 27 28 28 29 29 30 31 32 32 33 34 35
31 30 30 30 30 30 29 29 29 29 29 29 29 29 28 28 27 27 26 26 26 26 25 25 26 26 26 26 26 26 27 27 28 28 29 30 32 32 33 34 35 36 37
31 30 30 30 30 30 30 30 30 29 29 28 28 28 28 27 27 27 26 24 24 24 24 24 25 25 25 25 26 26 27 27 28 29 31 32 33 34 35 36 37 37 38
32 32 31 31 31 30 30 30 30 30 29 28 28 27 27 26 26 26 25 25 24 24 24 24 25 25 25 26 27 28 29 30 31 32 33 34 35 36 36 37 38 39 39

GEFSMW_500_meanwind_072.txt.gz
Wind_Speed
44 44 44 44 41 41 43 43 43 42 40 38 37 36 35 34 34 34 33 33 33 32 32 33 33 34 35 36 36 36 36 37 37 37 36 37 38 38 39 40 40 40 40
43 43 43 43 43 41 40 41 42 43 43 43 40 39 38 37 36 36 36 35 35 35 35 35 35 35 36 38 38 39 39 39 40 41 41 40 39 41 41 42 42 41 41
39 39 41 41 42 42 42 41 42 43 42 43 44 44 42 41 39 38 38 38 38 38 38 38 38 38 39 40 40 40 41 41 42 44 44 44 43 42 41 42 42 42 42
37 37 38 39 40 41 42 43 43 43 44 43 43 43 44 43 42 42 42 41 40 41 41 41 41 41 42 42 43 43 43 44 45 45 46 47 46 44 42 41 42 42 41
36 36 37 38 40 40 41 42 43 43 43 44 44 45 44 45 45 44 43 43 43 43 43 44 44 43 44 45 45 46 46 47 47 46 46 46 45 45 45 43 42 42 42
35 35 35 36 37 39 40 41 41 42 42 43 44 45 45 45 46 46 46 45 45 46 46 47 47 47 48 48 48 48 47 46 47 46 46 45 46 46 46 45 44 43 43
33 34 34 35 35 37 39 41 41 42 42 42 43 44 45 46 46 46 46 47 47 47 48 48 48 48 49 49 49 48 48 48 48 48 47 48 47 47 46 46 45 45 44
33 33 33 34 35 37 38 40 41 42 43 43 44 44 45 46 46 46 46 47 47 47 48 48 49 49 50 50 49 49 50 50 50 50 50 49 48 47 47 46 46 45 45
33 34 34 34 34 36 37 38 40 41 42 43 44 45 46 47 47 48 48 49 49 50 50 50 50 51 52 52 52 52 51 51 51 51 51 50 49 48 48 47 47 46 46
33 34 34 34 35 36 37 38 39 41 42 43 44 45 46 48 49 49 49 50 50 50 52 52 53 53 53 53 53 53 53 53 53 52 51 51 50 49 48 48 47 47 46
32 33 34 35 35 36 38 39 40 41 42 43 44 45 46 47 48 49 50 51 51 52 52 53 53 53 53 53 53 52 52 52 52 52 51 51 50 49 48 48 47 46 46
32 33 34 35 36 36 37 38 39 40 41 41 42 43 44 45 46 47 48 49 49 50 50 50 51 51 51 51 51 51 51 50 50 50 49 49 49 48 47 46 46 45 45
32 32 33 34 35 36 36 37 37 38 39 40 41 42 43 44 45 46 47 47 47 47 47 48 48 48 48 49 49 49 49 49 49 48 48 47 46 46 45 44 44 44 43
30 32 33 34 34 35 35 36 36 37 38 38 39 40 41 42 42 43 44 45 45 45 45 45 46 46 46 47 48 48 48 48 47 46 46 45 44 44 43 43 42 41 40
31 32 33 34 35 36 36 36 37 37 37 37 37 38 39 39 40 41 41 42 43 43 44 44 44 44 44 44 45 45 45 45 44 43 43 43 42 42 41 40 40 39 38
31 32 33 34 35 36 37 37 37 38 38 38 38 38 38 39 40 40 41 41 42 42 43 43 43 42 43 43 43 43 43 43 42 41 41 41 41 40 39 39 38 37 35
31 32 33 34 35 36 37 37 37 38 38 38 39 39 39 40 40 40 41 41 42 42 42 42 41 41 41 42 42 43 42 41 40 40 40 39 39 38 38 37 36 35 34
33 33 34 35 36 37 37 38 38 38 39 39 39 40 40 40 40 40 40 41 41 41 41 41 41 41 41 41 41 41 40 39 39 39 38 37 37 37 36 35 34 33 32
34 34 35 36 36 37 38 38 38 39 39 39 39 40 40 40 40 40 40 40 40 40 40 40 40 40 40 39 39 38 38 37 37 36 36 35 35 34 33 32 31 31 30
35 36 36 36 37 37 37 37 38 38 38 39 39 39 39 39 39 39 39 39 39 40 39 39 39 38 38 37 36 36 35 34 33 33 32 32 32 31 31 31 30 30 29
37 37 37 37 38 38 37 37 37 38 38 39 39 39 39 39 39 39 39 39 39 38 38 38 37 36 36 35 34 33 32 32 31 31 30 30 29 29 30 30 29 29 29
37 38 38 38 39 39 38 38 38 38 38 38 38 39 39 39 38 38 37 37 37 37 37 36 35 35 34 32 32 31 31 30 30 29 29 28 28 28 28 28 28 29 29
38 38 39 39 39 39 39 39 39 39 38 38 38 37 37 38 37 37 36 36 36 35 35 34 34 33 32 31 30 30 29 28 28 28 27 27 27 26 27 27 28 28 29
37 38 38 38 39 39 39 39 39 39 38 38 38 37 37 37 37 36 35 35 35 34 33 32 31 31 30 29 29 29 28 27 26 26 26 26 26 26 27 27 28 28 29
36 36 36 37 37 37 38 38 38 38 38 38 38 37 37 36 36 36 35 35 34 33 32 31 30 29 29 28 28 27 26 26 25 25 25 25 26 26 27 27 28 29 30
35 36 36 36 36 37 37 37 38 38 38 38 38 37 37 36 36 35 35 34 33 32 31 30 30 29 29 28 28 27 27 26 26 26 26 26 27 27 28 29 30 31 32

GEFSMW_500_meanwind_078.txt.gz
Wind_Speed
44 42 40 39 37 35 33 32 32 33 35 35 36 35 35 36 35 34 33 32 31 30 29 30 30 31 31 32 33 34 34 35 36 36 37 37 38 39 40 40 41 42 43
44 42 39 38 37 36 35 34 33 33 34 34 35 35 36 37 37 35 34 33 33 32 32 32 32 32 33 34 35 36 37 37 38 38 39 38 38 40 41 42 43 44 45
44 42 41 39 37 36 34 34 35 34 34 33 35 36 36 36 37 37 36 35 34 34 35 35 35 35 36 36 37 37 38 38 39 39 40 40 40 40 41 43 44 45 46
43 41 41 39 38 37 37 36 35 34 34 34 33 34 34 34 35 36 35 36 35 36 36 37 38 38 39 39 39 40 40 41 41 42 43 43 44 44 43 43 45 46 45
41 40 40 39 38 37 37 37 36 36 35 36 36 35 35 35 35 35 35 36 36 37 38 38 38 39 40 41 41 42 43 43 43 43 44 44 45 46 46 45 45 45 45
39 39 39 39 39 38 38 37 37 37 36 37 37 37 36 36 35 36 36 37 38 38 39 39 39 40 41 41 42 43 44 45 45 46 46 46 47 47 47 47 46 46 46
36 37 38 39 38 38 38 37 38 38 38 38 38 38 38 38 38 38 39 39 39 39 39 40 41 42 43 43 43 44 45 45 45 46 47 47 48 48 48 48 48 48 47
34 35 37 37 37 37 37 37 37 38 38 38 39 39 39 39 40 41 41 41 40 40 41 41 42 42 43 44 44 45 45 46 46 47 48 49 50 50 51 51 51 50 50
32 33 35 36 37 36 37 37 37 37 37 37 38 38 39 39 40 41 42 43 43 42 42 43 43 44 44 46 47 47 48 49 50 50 51 52 52 52 52 52 52 52 51
32 32 33 36 37 37 37 37 37 37 37 37 37 38 39 40 40 41 42 43 44 44 45 45 46 46 47 48 48 49 50 50 51 51 51 51 52 52 52 51 51 51 50
32 33 33 34 36 37 37 37 38 39 38 38 38 39 40 40 41 42 43 43 44 45 46 47 47 48 48 49 49 49 49 50 50 50 50 50 50 50 50 50 49 49 49
31 33 33 35 36 37 38 39 39 40 41 40 40 41 41 42 43 43 44 45 45 46 47 48 48 49 49 49 49 49 49 49 49 49 49 49 49 48 48 48 48 48 48
29 31 33 35 37 38 39 41 42 43 44 44 44 44 44 45 45 45 45 46 46 47 47 47 47 47 48 47 47 48 48 48 48 47 47 46 46 46 46 46 46 47 46
30 32 34 36 38 40 41 43 44 45 45 46 46 46 46 46 46 46 46 46 47 47 47 46 46 46 46 46 46 46 46 46 46 45 45 45 45 45 45 45 45 44 44
31 34 35 37 39 41 42 44 45 46 46 47 47 47 47 47 47 46 46 47 47 47 46 45 45 45 46 45 45 45 45 44 44 44 44 44 44 44 44 43 43 43 42
33 34 36 38 39 41 43 44 45 46 47 47 48 47 47 47 47 47 47 46 46 46 45 45 45 45 44 44 44 44 43 43 43 43 43 43 43 43 43 42 42 41 40
33 35 37 39 41 42 43 44 45 46 47 47 48 48 47 47 47 47 47 47 46 46 45 45 45 44 44 44 44 44 43 43 43 43 43 43 43 43 42 41 40 39 38
35 37 39 40 42 43 44 45 46 46 47 47 48 48 48 48 48 47 47 47 46 46 46 45 45 45 45 44 44 43 43 43 42 42 42 42 42 41 40 39 37 37 36
37 38 40 41 42 43 44 45 46 47 47 47 47 47 47 47 47 47 47 47 47 46 46 45 45 45 44 44 43 42 42 41 41 41 41 41 40 39 37 36 35 34 33
39 40 41 42 43 44 45 45 46 46 47 47 47 47 47 46 46 46 46 46 46 45 45 44 44 43 43 42 41 41 41 41 40 40 39 38 38 37 35 34 33 32 31
40 41 42 43 44 45 46 46 46 47 47 47 47 47 47 46 46 46 45 45 45 44 44 44 43 42 42 41 41 40 40 40 39 39 38 37 36 34 33 33 32 31 30
41 42 43 44 45 45 46 46 46 46 46 46 46 46 46 46 46 45 45 44 44 44 43 42 41 41 41 40 40 39 38 38 38 37 36 35 33 32 32 32 31 31 29
42 43 44 44 45 46 46 46 46 46 46 46 46 45 45 45 45 45 44 44 44 43 42 41 41 40 40 39 38 38 37 37 36 35 34 33 32 31 31 30 29 28 28
46 46 47 47 47 47 47 46 46 46 46 46 46 46 45 44 44 44 44 43 43 42 42 41 40 40 39 38 38 37 36 35 34 34 32 31 30 30 30 29 28 27 27
48 48 49 49 49 48 48 47 46 46 45 45 44 45 45 45 44 43 43 42 42 42 41 40 40 39 38 38 37 36 36 35 33 32 31 31 30 29 29 28 28 27 27
47 49 49 49 49 49 49 48 48 47 46 45 44 43 43 43 43 43 42 42 42 41 41 40 40 39 38 38 37 36 35 34 32 31 31 30 30 29 29 28 28 28 27

GEFSMW_500_meanwind_084.txt.gz
Wind_Speed
45 43 42 42 40 36 36 40 45 47 48 49 50 49 48 48 49 48 47 44 43 42 41 39 38 36 36 36 36 36 35 35 34 34 34 34 35 35 35 35 36 37 37
44 41 40 41 39 36 34 35 38 41 43 45 46 46 46 47 47 48 47 44 43 43 42 41 40 38 37 37 37 37 37 36 35 35 35 35 35 35 36 36 37 38 39
42 39 38 40 39 36 35 34 35 35 39 41 42 45 45 44 43 44 43 42 42 41 40 40 39 38 37 37 37 37 37 37 37 36 36 36 36 36 36 38 39 40 41
40 38 36 36 36 36 33 33 34 34 34 38 40 42 43 43 42 41 40 41 40 39 39 39 39 38 38 38 38 38 38 38 37 37 37 38 38 37 37 38 39 41 41
39 38 35 35 34 33 31 29 31 32 32 32 34 37 39 41 41 41 41 41 42 42 41 40 40 40 41 41 40 39 39 38 38 38 38 38 38 39 39 39 40 41 41
35 35 34 34 33 33 30 29 29 28 30 32 33 34 35 37 40 41 44 44 45 45 44 44 43 43 43 42 41 39 39 38 38 38 38 38 38 39 40 40 40 41 42
32 34 32 31 31 32 32 30 29 29 29 31 32 33 33 34 35 38 39 40 41 43 43 44 45 44 43 42 41 40 39 38 37 38 38 38 38 39 40 41 42 43 44
28 30 30 30 30 31 31 29 30 30 30 31 31 33 34 33 33 34 35 37 38 38 38 40 40 41 41 40 39 39 37 37 38 38 38 39 40 41 42 43 44 45 45
25 26 28 31 31 31 30 29 30 30 30 32 33 34 34 35 35 34 34 36 37 38 38 37 37 38 38 39 38 38 38 38 38 38 39 40 41 42 42 43 44 45 45
22 23 26 28 31 33 31 31 31 31 32 32 33 34 35 34 35 35 35 36 37 38 38 38 38 38 38 38 39 39 39 39 39 40 41 41 42 43 43 44 45 46 46
21 23 25 26 29 32 33 32 32 33 33 34 34 34 36 36 36 36 36 37 37 37 38 38 38 38 39 40 40 41 40 40 41 41 41 42 43 44 44 45 45 45 46
21 23 25 26 28 30 32 34 35 35 35 36 36 36 37 38 38 37 37 38 38 38 38 39 40 39 40 41 42 42 42 42 42 42 42 43 44 44 44 44 44 45 45
21 24 26 28 29 31 32 34 35 37 37 37 38 39 39 41 41 41 41 41 41 41 41 42 42 42 42 43 43 43 44 44 44 43 43 44 44 43 43 44 44 44 44
22 24 26 28 30 32 34 35 37 39 40 40 41 41 43 44 44 44 44 44 44 44 44 44 44 45 45 45 45 45 45 44 44 44 43 43 43 43 43 43 43 43 43
22 25 27 29 31 33 35 36 38 40 41 42 43 44 45 46 46 46 46 46 46 46 46 46 45 45 45 45 45 44 44 44 44 43 43 43 42 42 42 42 42 42 41
24 26 28 30 32 35 36 38 40 42 43 44 45 46 47 48 48 48 48 48 48 48 47 47 46 46 45 45 45 45 45 44 44 44 43 43 42 42 42 42 41 41 40
26 28 31 33 35 37 39 41 43 44 46 47 48 49 49 49 49 49 49 49 49 49 49 49 48 47 47 47 46 46 46 45 44 44 43 43 42 42 41 40 40 40 39
29 31 34 36 38 40 42 44 46 47 48 49 50 51 52 51 51 51 52 51 51 51 51 50 50 49 49 48 48 47 46 45 45 44 43 42 42 41 40 40 39 39 38
32 34 36 39 41 43 44 46 48 49 51 51 52 52 52 52 52 52 52 52 52 51 51 51 50 50 49 49 48 47 46 46 45 43 43 42 40 40 39 39 38 38 37
35 37 40 42 43 45 46 48 49 50 51 51 52 52 52 52 52 52 52 51 51 50 50 49 49 49 49 48 48 47 46 45 44 42 42 41 40 39 39 38 37 37 36
37 40 41 43 45 47 48 50 51 53 53 52 52 52 52 51 51 51 51 50 50 50 49 49 48 48 47 47 47 46 45 44 43 42 41 40 39 39 38 37 36 35 34
40 42 44 46 47 49 50 52 53 54 54 54 53 53 52 51 51 50 50 50 49 49 48 48 48 47 46 46 46 45 45 43 43 42 41 40 39 38 37 36 35 34 34
42 44 46 48 50 51 53 54 55 56 56 55 55 54 53 53 52 51 50 49 49 48 47 47 47 47 46 46 46 45 44 43 42 41 40 39 38 37 36 35 35 34 33
44 46 48 50 52 54 55 56 57 57 57 57 56 55 55 54 53 52 51 49 48 48 47 47 46 46 45 45 46 45 44 43 42 41 40 39 38 37 36 35 34 33 32
46 48 50 51 52 54 55 55 56 55 55 55 54 54 54 53 52 51 50 49 48 48 47 47 46 46 46 45 45 45 44 43 42 41 40 39 38 37 36 35 34 33 32
48 49 51 51 52 53 54 53 53 53 53 52 52 51 51 51 51 51 50 49 48 48 47 47 47 46 45 45 45 45 44 43 42 41 40 39 38 37 36 35 34 33 32

GEFSMW_500_meanwind_090.txt.gz
Wind_Speed
38 40 42 44 45 45 44 44 46 46 48 48 47 49 50 50 51 53 53 53 53 51 51 50 49 47 45 43 41 40 38 36 35 35 35 35 34 34 34 34 35 35 35
35 38 40 42 42 42 42 41 42 44 47 47 46 47 49 49 49 51 53 53 51 50 50 50 49 48 46 44 42 41 39 37 37 36 36 35 34 34 34 35 36 36 35
29 33 37 39 40 41 40 39 41 43 43 42 42 45 47 48 49 49 51 52 52 52 51 50 50 49 48 46 44 43 42 40 39 38 36 35 36 35 35 35 36 36 36
24 28 33 34 35 35 35 36 37 38 38 39 40 42 44 47 48 49 50 51 51 52 50 49 48 47 47 46 46 44 42 40 39 38 37 37 36 37 36 35 35 35 36
21 23 27 29 30 31 32 33 35 35 35 35 36 38 42 43 46 48 48 48 47 48 48 48 45 45 45 44 44 42 40 39 39 38 38 38 38 38 37 37 37 37 37
16 17 23 26 24 26 28 29 30 33 33 33 31 33 36 39 42 43 43 45 45 45 45 46 45 44 43 42 40 40 39 40 40 39 38 38 39 40 40 39 38 38 38
12 14 18 21 21 22 23 23 26 28 28 27 28 29 30 32 36 39 40 41 42 43 43 44 44 43 42 41 40 40 42 43 43 43 42 41 41 41 40 40 39 39 38
9 11 13 17 19 20 21 21 23 25 26 26 28 29 29 31 34 37 39 40 41 42 43 44 45 45 45 45 45 44 44 45 45 45 45 45 43 42 41 41 40 38 37
7 8 9 12 16 18 18 18 19 22 23 25 27 29 29 30 33 36 38 38 38 39 41 44 46 46 46 47 47 48 48 48 47 46 46 46 44 42 40 39 38 37 36
5 6 8 11 13 15 16 17 19 21 21 22 23 26 27 29 31 34 38 39 40 40 39 41 44 46 47 48 48 49 49 48 47 46 46 44 42 40 38 37 37 37 37
5 5 6 10 12 15 17 19 20 21 22 23 23 24 25 27 29 32 34 37 38 39 40 40 41 43 44 44 45 47 46 45 45 45 43 41 39 39 39 38 38 38 38
5 6 7 10 12 14 17 20 21 23 24 24 25 26 26 26 29 31 33 34 35 36 37 38 40 40 41 41 42 43 43 43 42 42 41 41 41 41 40 39 39 40 40
6 7 9 11 13 14 17 20 22 24 25 26 27 28 29 30 31 33 35 35 36 37 38 38 40 41 41 41 41 42 43 43 43 42 42 41 41 40 40 40 40 41 41
8 10 11 13 15 16 18 21 24 26 28 29 30 32 33 34 35 36 37 38 39 40 40 40 40 42 41 40 41 42 42 42 42 42 41 41 41 41 41 41 42 42 41
9 11 13 14 16 18 20 23 26 28 30 31 33 35 36 37 38 39 40 40 41 42 43 43 42 42 42 43 43 43 43 43 43 43 43 43 43 43 43 43 43 43 43
11 13 15 17 19 21 23 25 28 31 33 35 36 38 39 40 41 41 42 43 44 44 45 45 44 44 44 45 45 46 46 46 45 46 45 45 45 45 44 44 44 44 44
14 16 18 20 23 25 27 30 33 35 37 39 40 42 44 45 46 46 46 46 47 47 47 46 47 47 47 47 47 47 48 47 47 48 47 47 46 46 46 46 46 46 46
18 20 23 25 27 30 32 34 36 38 40 43 44 46 47 48 49 49 50 50 51 50 50 50 50 50 50 50 50 50 49 49 49 48 48 48 48 47 47 47 47 47 47
23 25 27 29 32 34 36 38 40 42 44 46 47 49 50 51 52 52 53 53 53 54 54 53 53 53 52 52 52 52 52 51 51 50 50 50 49 48 48 47 47 47 46
27 29 31 34 36 38 40 42 44 46 47 49 50 51 53 53 54 55 56 56 56 56 56 55 55 55 54 54 53 52 52 51 51 51 50 50 49 48 47 47 46 45 44
31 34 36 38 40 42 44 46 48 49 51 53 54 55 55 56 57 58 58 58 58 58 57 56 56 56 55 54 54 52 51 51 50 50 49 48 48 47 46 46 45 44 44
35 37 40 42 44 46 47 49 51 53 55 56 57 58 58 59 59 59 59 59 59 59 58 57 56 55 54 54 53 52 52 51 50 49 49 48 47 47 46 46 45 44 43
38 41 43 45 47 50 52 53 55 56 57 58 59 59 59 59 59 59 59 58 58 57 57 57 56 55 54 53 53 52 52 51 50 50 49 48 47 46 46 45 44 43 42
41 43 45 48 50 52 54 55 56 58 59 59 59 60 60 59 59 58 57 56 55 55 54 54 54 54 53 52 52 51 51 51 51 50 49 49 47 46 45 44 43 42 42
43 46 48 50 51 53 54 56 58 59 60 60 60 60 60 59 58 57 56 55 54 53 52 51 50 51 51 51 51 51 51 51 51 50 50 48 47 46 45 44 43 42 41
46 48 50 51 52 54 55 57 58 58 58 58 58 58 58 58 57 56 55 54 53 52 52 50 50 50 50 50 50 50 50 50 50 50 48 47 46 45 44 42 42 41 41

GEFSMW_500_meanwind_096.txt.gz
Wind_Speed
36 40 43 46 49 50 51 51 51 50 49 47 46 46 48 49 50 50 52 52 54 55 56 56 55 54 52 51 50 49 47 45 44 42 41 40 39 38 37 37 36 35 35
31 34 37 40 42 45 48 49 50 49 47 46 46 45 47 47 50 50 52 52 52 53 54 54 55 55 54 53 52 49 48 46 44 43 43 42 41 40 39 38 38 37 36
26 30 34 36 38 39 42 44 46 46 46 45 45 46 46 46 48 49 50 52 51 51 51 51 52 52 51 52 51 49 48 47 46 45 44 43 42 42 42 40 40 40 38
18 22 27 32 33 34 36 39 42 44 44 44 44 45 44 45 45 47 48 50 50 51 51 51 50 51 51 51 51 50 49 48 47 46 45 45 45 44 42 41 41 40 38
10 13 18 23 27 29 32 35 38 40 42 42 41 40 40 42 44 45 46 47 48 50 52 51 50 50 51 50 50 51 51 50 49 48 46 46 45 44 42 40 40 39 38
5 8 12 16 19 23 27 30 32 35 37 38 38 38 38 39 41 42 44 45 47 49 51 50 48 48 49 50 50 49 49 49 49 48 47 46 44 43 42 41 39 39 38
7 6 7 11 13 18 21 24 26 29 31 32 33 34 36 37 37 38 38 39 41 42 43 43 44 45 47 49 49 49 49 49 48 47 46 44 43 43 42 41 40 40 40
7 7 6 8 10 13 15 18 18 22 27 29 29 29 31 33 33 35 36 38 39 41 43 44 45 46 47 48 50 51 50 49 47 47 46 45 44 44 43 42 42 42 43
7 7 8 8 8 9 10 12 13 17 20 24 25 25 27 29 31 34 35 37 37 38 40 42 43 45 45 46 48 50 50 49 49 48 47 47 46 45 44 44 45 45 46
8 8 9 8 7 7 8 9 11 13 16 19 22 23 25 27 29 30 32 34 36 37 37 40 41 43 45 46 47 47 48 49 49 49 50 50 49 49 49 48 48 48 48
7 9 9 8 6 5 7 8 9 11 12 15 19 21 24 26 28 28 29 32 35 38 39 39 40 41 42 44 44 44 47 48 49 49 50 50 50 51 51 51 50 50 49
6 6 5 5 4 3 3 6 8 11 12 14 17 21 23 25 27 28 29 30 32 34 37 39 40 42 43 44 44 45 46 47 47 49 50 51 51 52 52 52 51 50 49
3 1 1 1 3 3 4 6 7 9 11 12 14 18 21 24 26 27 29 30 31 34 35 38 41 42 44 45 45 45 46 48 49 50 50 51 52 51 51 51 51 49 48
1 2 2 3 3 4 5 7 8 9 12 14 16 19 21 24 26 28 30 32 33 35 38 39 41 43 45 47 48 49 49 50 50 51 52 52 53 52 51 50 49 48 48
3 3 4 5 5 6 7 9 11 13 15 17 20 22 24 26 29 31 33 35 37 39 40 41 42 44 45 47 49 51 51 51 52 52 52 52 52 51 50 49 49 49 48
4 5 6 7 8 10 12 14 16 18 20 22 24 26 28 31 33 35 37 39 41 43 44 45 45 46 47 48 50 50 50 50 51 50 51 50 50 50 50 50 50 49 49
8 9 10 12 13 15 17 19 21 23 25 27 29 31 34 36 38 40 42 43 45 46 48 49 50 51 51 51 52 53 53 52 51 51 51 51 51 51 51 50 49 49 49
12 13 15 17 19 21 23 24 26 28 31 33 35 37 39 40 43 45 46 47 48 49 50 50 52 53 54 54 55 56 56 55 54 54 53 53 53 53 53 52 52 51 51
16 18 20 22 24 26 27 29 31 34 36 38 40 42 43 45 47 49 50 51 52 53 54 55 56 56 57 57 57 56 56 57 56 56 56 56 55 56 56 55 54 54 53
20 22 24 26 28 30 32 34 36 38 41 42 44 46 47 49 50 52 53 54 55 56 57 58 59 59 58 58 59 57 57 58 58 58 58 58 58 58 58 57 56 56 55
24 26 28 30 32 33 35 37 38 41 43 45 48 50 51 53 54 55 56 57 58 59 60 59 59 60 60 59 60 60 60 59 59 59 60 60 59 59 58 58 57 56 55
27 29 31 33 34 36 38 40 42 44 46 49 51 53 55 56 58 59 60 60 61 61 61 61 61 61 61 60 60 61 61 61 61 60 60 61 61 61 60 59 58 57 56
31 32 34 36 38 40 41 43 46 49 51 53 54 56 58 58 59 61 62 62 63 63 62 61 60 59 59 60 60 60 61 62 62 61 60 60 60 60 59 58 57 56 55
34 35 37 39 41 43 45 48 50 53 54 55 57 58 59 60 60 60 61 61 61 61 60 60 59 58 57 58 58 59 60 60 61 61 61 60 58 58 57 56 56 55 54
36 38 39 41 43 46 49 52 54 55 56 57 58 58 58 58 58 58 58 58 58 58 57 56 56 55 55 55 56 57 58 58 58 58 58 59 58 57 56 55 54 54 53
38 40 42 44 47 50 52 55 56 57 57 57 56 55 55 55 55 55 55 55 54 54 53 52 52 52 52 52 53 55 55 56 56 56 56 57 56 56 55 54 53 53 52

GEFSMW_500_meanwind_102.txt.gz
Wind_Speed
37 40 42 45 48 50 52 54 55 56 58 59 59 59 57 57 56 54 53 52 52 52 52 52 52 52 52 51 51 51 51 50 49 48 48 47 45 43 41 40 40 39 39
31 34 36 38 41 44 47 50 52 53 55 57 57 57 57 56 56 55 55 54 53 53 54 53 53 54 54 54 52 53 54 53 53 51 49 47 46 45 43 42 41 41 41
23 26 29 31 33 36 40 44 46 48 50 53 55 55 54 53 52 52 52 53 54 53 52 53 53 53 53 54 54 54 54 53 52 52 51 49 46 45 45 44 44 44 44
18 21 23 26 28 29 32 34 38 42 45 48 51 53 53 51 49 49 49 50 51 52 53 51 51 53 52 52 53 54 53 52 51 51 50 49 48 48 46 46 46 46 46
13 15 18 21 23 25 28 29 32 35 38 41 44 47 48 49 49 48 47 48 50 51 53 53 51 51 50 50 50 52 53 53 52 51 51 50 49 48 48 48 48 48 48
10 10 11 15 18 21 24 26 29 31 33 34 38 42 44 45 47 47 47 47 49 50 51 51 51 51 50 50 50 50 53 54 54 53 53 52 51 50 50 50 49 49 48
5 5 6 8 11 15 18 21 24 27 28 30 33 36 38 39 41 43 44 46 47 48 49 50 51 51 50 50 50 51 50 52 53 53 53 53 52 51 50 49 49 48 48
2 2 2 3 6 9 12 15 18 21 23 26 28 30 32 35 38 40 41 43 44 46 47 50 50 50 50 50 51 51 51 51 52 52 52 51 51 50 50 49 49 49 48
4 3 2 1 2 5 7 9 11 14 18 20 23 25 27 30 33 37 38 39 41 42 45 47 48 48 50 51 51 51 51 51 52 53 53 52 53 53 52 52 51 50 49
4 4 3 2 2 2 4 5 7 8 11 15 18 21 23 25 28 31 33 35 36 37 39 42 44 45 47 49 50 50 50 50 50 51 52 53 54 54 54 54 52 51 51
5 4 3 2 1 2 2 3 5 7 9 12 15 19 21 23 26 28 31 33 34 34 37 39 41 42 44 46 48 49 50 51 50 51 52 53 54 54 54 53 53 53 51
6 5 4 3 1 0 1 3 4 6 8 11 14 17 19 22 25 27 29 30 32 34 36 38 40 42 43 44 45 47 49 49 50 49 50 51 52 53 52 52 54 54 53
7 6 5 3 2 2 3 4 5 7 9 11 14 17 18 21 24 26 28 29 31 34 36 37 39 42 43 45 46 47 47 48 49 48 49 49 50 50 51 52 53 54 54
8 7 6 5 5 5 5 6 7 8 10 11 14 16 19 21 24 27 29 31 33 35 37 39 41 43 44 45 46 48 48 49 50 50 50 50 50 50 51 53 54 54 55
8 8 8 8 8 9 9 10 11 12 14 15 16 19 21 24 26 28 31 33 36 38 40 41 43 45 47 48 48 48 50 50 50 51 52 52 52 53 53 54 55 56 57
10 10 10 11 11 12 13 13 15 16 18 19 21 22 24 26 29 31 33 36 38 40 41 43 45 46 48 50 50 51 52 52 53 53 53 54 54 56 57 58 58 59 59
12 13 14 14 14 15 17 18 19 21 23 25 26 27 29 31 33 35 37 39 41 43 45 47 48 50 51 53 54 55 56 56 57 57 57 58 58 59 60 61 62 62 62
15 16 17 17 18 19 20 21 22 24 26 28 30 31 33 35 37 39 41 42 44 46 48 49 51 53 55 56 58 58 59 59 60 60 60 61 62 62 62 62 62 61 61
18 18 19 20 20 21 23 25 27 28 30 31 33 35 36 38 40 41 43 45 46 47 49 51 53 56 57 59 61 62 62 63 62 62 62 63 63 63 62 62 61 61 61
20 21 22 23 24 25 27 29 31 33 34 35 37 39 40 42 43 44 45 47 49 50 52 53 56 58 60 62 64 66 66 66 66 65 64 64 64 63 63 62 62 61 60
23 24 25 26 28 29 31 33 35 36 38 39 41 43 44 46 47 48 50 51 53 54 55 56 58 59 61 63 64 65 66 66 66 66 65 64 64 63 62 63 62 60 59
26 27 28 30 32 33 35 36 38 40 42 43 45 47 49 50 51 52 53 55 56 57 58 59 59 60 60 61 61 63 64 64 64 63 63 63 63 63 63 61 61 60 59
29 31 32 34 36 37 38 40 41 44 46 48 50 51 52 54 54 55 56 56 56 57 58 58 58 59 59 59 59 58 60 60 60 60 61 62 62 63 62 61 61 61 60
33 34 35 37 38 40 42 44 46 48 50 51 52 54 54 55 55 56 56 56 56 56 56 56 57 56 56 56 57 57 57 57 57 57 58 59 60 61 62 61 60 60 60
35 37 38 40 41 43 45 47 49 51 52 53 54 55 55 55 54 55 55 55 55 55 54 53 53 53 52 52 53 53 54 55 55 55 54 55 57 58 59 59 59 59 59
38 39 41 43 44 46 47 49 51 52 53 54 54 54 54 53 54 54 53 54 54 53 53 52 50 49 49 48 49 49 50 52 53 52 51 52 53 54 55 56 57 57 56

GEFSMW_500_meanwind_108.txt.gz
Wind_Speed
36 38 40 42 43 46 47 49 50 52 54 55 56 56 58 59 60 61 61 61 60 59 58 56 55 53 51 50 50 50 49 49 48 48 48 48 48 47 46 45 45 45 45
33 34 35 37 39 41 43 45 47 49 51 52 53 54 54 56 57 58 59 61 61 60 59 57 56 54 53 51 52 51 51 51 50 50 50 50 49 48 48 48 47 47 46
29 30 31 33 34 36 37 40 42 44 47 49 51 52 52 52 54 55 56 58 59 59 59 59 57 56 54 54 53 52 50 51 51 52 52 50 49 49 48 48 48 47 46
26 27 28 29 29 29 31 33 35 38 41 44 46 47 48 49 50 51 51 53 56 57 57 57 57 56 55 54 54 53 52 52 52 52 52 51 50 51 50 50 48 48 47
21 22 22 23 24 25 25 26 27 30 33 37 40 42 43 45 47 48 48 49 51 52 54 55 56 56 56 55 54 53 53 52 53 53 52 51 51 50 51 50 49 49 48
15 17 18 19 19 21 21 22 22 24 27 30 34 38 40 41 43 44 45 46 48 49 50 53 54 55 55 56 56 54 54 53 53 53 52 52 52 51 50 50 51 52 51
12 13 13 15 16 18 19 19 20 21 23 26 29 33 35 37 38 40 42 43 45 46 48 51 52 52 53 54 56 56 55 54 54 53 53 54 54 54 54 53 53 54 54
11 11 11 11 11 12 13 14 15 17 19 22 24 27 30 31 32 35 38 40 41 43 45 46 49 50 51 52 54 56 55 55 55 54 54 54 55 55 55 54 54 54 53
10 10 10 10 9 9 10 11 11 13 15 18 20 22 25 27 28 30 33 35 36 37 41 43 45 47 48 50 52 54 55 56 56 55 54 54 55 54 54 54 54 54 53
11 10 10 9 8 8 8 8 9 10 12 14 16 19 21 23 25 27 29 31 33 34 36 38 41 44 46 49 50 52 53 55 56 56 56 56 56 56 55 54 54 54 53
11 10 10 9 9 8 9 8 8 9 11 12 14 16 18 21 23 25 27 29 31 33 34 36 39 41 43 45 48 50 51 54 55 56 57 57 57 57 56 56 57 57 56
12 11 10 10 10 10 9 8 8 8 9 11 12 14 17 20 23 25 27 29 32 34 35 37 39 42 43 45 47 48 50 51 54 56 57 58 58 58 58 58 57 56 56
13 13 12 11 10 10 10 9 9 9 10 12 13 14 16 18 21 23 26 28 31 33 35 38 40 42 43 44 46 48 51 52 54 55 57 58 59 59 60 59 59 58 58
13 13 12 11 11 11 11 11 11 11 12 14 15 16 18 20 22 24 26 28 31 33 35 38 40 41 43 44 46 48 52 54 54 56 57 59 60 60 61 61 62 62 61
14 13 13 13 13 13 13 13 13 14 15 16 17 19 20 22 24 25 28 30 32 34 36 38 40 42 44 47 48 50 51 54 55 56 58 59 61 62 62 63 63 63 63
15 15 15 15 15 15 16 16 16 17 17 18 19 20 22 23 25 26 29 31 33 35 37 40 42 44 47 49 51 52 53 55 56 57 58 59 61 63 63 64 64 64 64
17 17 17 17 18 19 19 21 21 21 22 22 22 24 25 26 27 29 30 32 34 37 39 41 44 46 49 51 52 54 56 57 58 59 60 60 61 62 63 63 63 64 64
18 19 20 20 21 22 23 23 24 24 25 26 27 28 29 30 31 32 34 36 37 39 41 44 46 48 50 52 54 56 57 58 60 61 61 61 61 62 63 64 65 65 65
21 22 22 23 24 25 26 26 26 27 28 29 30 32 33 34 35 36 38 39 41 43 45 47 50 51 53 55 56 57 58 58 59 60 61 61 62 63 65 66 67 67 67
23 24 25 25 26 27 27 28 29 30 31 32 33 35 36 37 39 40 42 44 45 47 49 50 51 53 54 55 55 56 57 57 57 58 60 60 61 62 63 64 65 66 66
25 26 26 27 28 28 29 30 32 33 34 35 36 37 39 41 43 44 46 47 49 50 51 51 52 53 54 55 55 56 57 57 57 57 59 60 61 62 62 62 63 64 64
28 29 29 30 31 31 32 34 35 36 37 38 39 40 42 44 46 47 48 50 51 51 52 52 53 53 54 54 54 55 56 56 56 57 58 59 60 61 61 62 62 62 63
31 32 32 33 34 35 36 37 38 39 40 41 42 44 45 46 48 49 50 51 52 52 52 53 53 52 52 52 52 53 54 55 55 56 57 58 58 59 60 61 62 62 61
33 34 34 35 36 36 37 38 39 40 41 42 44 45 46 48 49 50 51 51 52 52 52 52 52 51 51 51 51 52 52 52 53 53 55 56 57 58 59 59 60 61 60
34 35 36 36 36 37 38 39 40 41 43 44 45 46 47 48 49 50 50 51 52 52 52 51 50 49 49 49 49 49 49 49 50 50 51 53 55 56 57 57 58 58 57
35 36 36 37 37 38 39 40 42 43 44 45 45 47 48 49 49 50 50 51 51 51 50 50 48 48 48 47 47 47 47 47 48 48 48 49 50 51 52 52 51 51 52

GEFSMW_500_meanwind_114.txt.gz
Wind_Speed
38 38 39 39 40 41 41 42 43 44 45 46 48 49 50 51 52 54 55 55 55 56 57 56 57 58 58 57 56 55 54 53 52 51 50 49 49 48 47 46 44 43 43
35 36 36 37 37 37 38 40 41 42 43 44 46 47 48 49 51 52 54 53 53 54 55 54 55 56 57 56 56 55 54 54 54 54 53 51 50 49 48 47 46 45 45
32 33 33 34 34 35 35 36 38 39 39 41 42 43 45 47 49 50 51 52 53 52 52 51 51 54 55 56 56 55 55 54 54 55 54 53 51 50 49 48 48 47 47
29 29 29 30 31 32 33 34 34 35 36 37 38 39 40 42 44 47 48 49 50 50 51 52 52 52 53 53 53 54 55 55 54 54 55 55 55 54 51 49 48 47 48
26 26 27 28 29 30 31 31 32 32 32 33 34 35 36 38 39 41 45 46 48 48 50 51 51 51 51 51 52 54 55 54 54 54 54 54 54 54 54 51 49 48 48
23 24 25 26 27 28 28 28 29 29 29 29 30 31 32 33 35 37 40 43 44 46 48 49 50 50 49 49 50 52 54 53 53 54 54 54 54 54 54 53 52 51 49
20 21 22 23 23 23 23 24 25 25 26 27 27 27 28 28 30 31 33 37 40 42 45 46 48 48 48 48 48 50 51 51 51 52 54 54 54 55 56 53 53 53 50
18 19 20 20 20 20 21 21 21 21 22 23 24 24 25 26 27 29 31 33 36 39 42 44 45 46 46 47 48 49 49 50 51 51 52 53 54 54 55 55 54 53 52
17 17 17 18 19 19 20 20 21 21 21 21 22 23 23 24 25 26 28 30 32 34 37 38 40 42 43 44 45 45 47 49 51 51 52 54 54 53 53 54 54 54 53
16 16 17 17 18 18 19 19 19 20 20 21 21 22 22 23 23 24 25 27 29 30 31 33 34 36 38 40 42 43 44 46 47 49 50 51 53 53 53 53 53 54 54
15 16 16 16 17 17 18 18 19 19 19 19 20 21 22 23 23 24 25 25 26 28 30 32 33 35 36 37 39 41 43 45 46 47 49 51 52 55 54 55 55 56 57
15 16 17 17 17 17 18 18 18 18 18 18 18 19 20 22 23 24 25 26 27 28 29 31 32 34 36 37 39 41 43 44 46 48 50 51 52 54 55 55 55 56 57
16 16 17 17 17 18 18 18 18 19 19 19 20 20 21 22 23 24 25 26 27 28 30 32 34 35 37 38 40 42 44 45 47 49 51 52 53 55 57 57 57 57 58
17 17 18 18 18 18 19 20 20 21 21 21 22 22 22 23 23 25 26 27 27 29 30 32 34 36 37 39 41 43 45 46 48 50 51 53 54 55 57 58 59 60 60
17 18 18 19 19 20 20 21 22 22 22 23 23 23 24 25 25 26 27 28 29 30 32 33 35 37 38 40 41 43 45 46 48 51 53 55 56 57 58 59 60 61 62
18 18 19 20 21 22 23 23 24 24 24 25 25 26 26 27 27 28 28 30 31 32 33 35 37 38 40 41 43 44 46 47 49 51 53 54 56 58 59 60 61 63 63
19 20 21 22 23 24 24 25 25 26 26 26 27 27 27 28 29 29 30 32 33 35 35 37 38 40 42 43 44 46 47 49 50 51 53 55 56 58 59 60 61 61 61
21 22 23 24 25 26 26 27 28 29 29 29 29 29 29 30 30 31 32 33 35 36 38 39 40 41 43 45 46 47 48 50 51 53 54 55 56 58 59 59 59 60 60
23 24 25 26 26 27 28 29 30 31 32 31 31 31 31 32 32 33 34 35 37 38 39 41 42 43 44 46 47 48 49 50 51 52 53 55 55 56 57 57 58 58 58
25 26 27 28 29 29 30 31 32 33 33 33 33 34 34 34 34 35 36 37 37 38 39 40 42 43 44 46 47 48 49 50 51 51 52 53 54 55 56 56 56 56 56
26 28 29 30 30 31 32 33 33 34 34 34 35 35 36 37 37 38 38 38 39 39 40 42 43 44 45 47 48 49 50 51 51 52 52 53 54 54 56 56 56 56 56
28 29 30 31 32 33 33 34 35 35 36 36 37 37 38 38 39 39 40 40 40 41 41 42 43 45 46 47 48 49 50 51 52 52 52 53 53 54 55 55 55 55 55
29 31 32 33 34 34 35 36 37 37 38 38 39 39 40 40 41 41 42 42 42 42 43 44 44 45 46 47 48 49 50 51 51 50 51 51 52 53 53 54 54 54 53
32 33 34 35 35 36 37 38 39 39 40 41 41 41 42 42 43 43 43 42 42 43 44 44 44 45 47 48 48 49 49 49 48 48 48 49 50 50 50 51 52 52 52
34 35 36 36 37 38 39 39 40 41 42 42 42 43 44 44 44 44 43 43 43 44 44 44 45 46 46 46 47 47 47 47 46 46 47 47 46 46 46 47 48 49 50
36 37 37 38 39 40 40 41 41 42 42 43 44 45 45 45 44 43 43 44 45 45 46 46 46 46 46 46 46 46 46 45 44 44 44 43 43 43 43 43 44 46 47

GEFSMW_500_meanwind_120.txt.gz
Wind_Speed
34 35 35 36 37 37 37 37 37 37 38 39 39 41 42 43 44 46 48 49 50 51 52 53 53 54 54 54 55 55 55 55 55 55 55 54 52 52 51 50 50 49 48
33 34 35 35 36 36 36 36 36 37 37 38 39 40 41 41 43 45 46 47 48 49 50 52 52 53 54 54 54 54 54 54 56 56 57 56 54 52 51 51 50 50 50
33 33 33 33 34 34 35 35 35 36 37 38 39 39 40 40 41 42 45 45 46 47 47 49 50 51 53 53 53 54 53 54 55 56 56 57 56 54 52 50 50 51 51
30 31 31 32 32 33 33 34 34 35 36 36 37 37 37 37 38 39 40 42 43 44 45 46 47 49 51 51 52 53 53 52 52 54 55 56 57 56 54 52 51 52 52
26 27 28 29 30 30 31 31 32 32 33 33 33 34 34 34 34 34 36 38 40 41 43 45 46 47 48 50 50 51 53 53 52 52 54 55 56 56 56 54 52 52 52
23 23 24 26 27 27 28 28 29 30 31 31 31 31 32 32 32 33 33 34 35 37 39 42 44 45 47 49 49 51 52 54 54 53 52 53 54 55 55 56 55 54 53
19 21 22 23 24 25 26 27 28 28 29 30 30 30 31 31 31 32 31 32 33 35 36 38 40 43 46 48 49 51 52 53 54 54 53 53 52 53 55 55 55 54 53
18 19 21 22 23 23 24 25 26 26 27 28 28 28 29 29 30 31 30 31 33 33 35 36 37 39 42 44 46 47 49 51 52 53 52 53 53 54 55 55 55 55 54
17 18 19 20 21 22 23 24 25 25 26 26 27 28 28 29 30 30 31 31 32 32 33 34 34 36 38 40 43 45 46 48 50 51 52 52 52 53 54 54 55 56 56
18 19 20 20 21 22 23 24 24 24 24 25 26 27 28 29 29 30 30 31 31 32 32 33 33 35 36 38 40 42 43 45 46 48 50 51 52 53 54 55 55 55 56
17 19 20 20 20 21 21 22 22 22 23 24 25 26 27 28 28 29 29 30 31 32 33 33 34 34 36 37 38 39 41 43 45 47 49 50 51 52 52 53 55 56 57
17 18 18 19 20 20 21 21 22 23 24 25 26 26 27 28 28 29 30 31 32 32 33 33 34 35 36 37 39 39 40 41 43 45 47 49 51 52 53 53 55 57 58
16 16 17 18 19 20 20 21 22 23 24 25 26 26 27 27 28 29 30 31 31 31 32 33 34 35 36 36 37 38 40 40 42 44 45 48 50 51 54 55 56 57 58
15 17 18 18 19 20 21 22 23 23 24 24 25 25 26 27 27 29 30 31 32 32 33 34 35 36 37 38 39 40 41 43 44 45 46 47 49 51 53 54 56 57 58
16 17 18 18 19 20 21 22 23 24 24 24 25 26 27 28 29 30 31 32 33 33 34 35 35 36 37 39 40 41 43 44 45 46 48 49 50 51 53 54 55 56 57
18 18 19 19 20 21 22 23 24 24 24 25 26 27 28 29 30 31 32 33 33 34 35 35 36 37 39 40 41 42 43 44 45 46 47 49 50 51 53 54 56 57 58
19 19 20 20 21 22 23 24 24 25 25 27 28 28 29 31 32 33 33 34 34 35 36 36 37 38 39 40 41 42 43 44 46 47 48 49 49 51 52 53 55 56 57
21 21 22 22 23 23 24 24 25 25 27 28 29 30 32 32 33 33 34 35 36 36 36 36 37 38 39 40 41 42 43 44 45 46 46 48 49 51 52 53 54 55 56
23 23 24 24 24 25 26 26 27 27 28 29 30 31 33 33 34 35 35 36 37 37 38 38 39 40 41 42 43 43 43 44 45 46 47 49 50 52 53 53 54 54 55
25 25 26 26 26 27 28 28 29 29 30 31 32 33 33 34 34 35 36 37 37 38 39 39 40 41 42 43 43 43 43 44 45 47 48 50 51 51 52 53 53 54 54
27 28 28 29 29 29 29 29 30 31 32 34 35 35 35 35 36 36 37 37 38 38 39 39 40 41 42 42 42 43 43 44 45 46 47 49 50 50 51 52 52 52 53
29 29 30 30 31 31 31 31 32 33 34 35 36 37 37 37 37 38 38 39 39 40 40 40 41 41 42 42 42 43 43 44 45 45 46 47 48 49 50 50 51 51 51
31 32 32 32 32 33 33 34 34 35 36 37 38 38 38 38 39 39 40 40 41 41 41 42 42 42 42 42 42 42 43 43 44 44 45 46 47 47 47 48 49 50 50
33 33 33 34 34 34 35 36 37 37 38 39 40 40 40 40 40 40 41 41 42 42 42 43 42 42 42 42 42 41 42 42 43 44 44 44 44 44 44 46 47 47 48
34 34 35 35 35 35 36 37 38 39 39 40 40 41 40 41 41 41 41 42 43 43 43 43 42 42 41 41 41 41 41 42 42 43 43 43 42 42 43 43 44 44 45
35 35 36 36 36 36 37 38 39 39 40 40 41 41 41 41 41 41 42 43 43 43 43 43 42 41 41 40 40 41 41 42 42 42 41 41 40 40 41 41 41 41 42

GEFSMW_500_meanwind_126.txt.gz
Wind_Speed
34 34 35 35 36 37 37 37 36 36 36 37 37 38 38 39 40 40 40 41 42 42 42 43 44 45 47 49 50 51 51 51 51 52 53 53 54 53 52 51 51 51 51
34 35 35 36 36 36 36 36 36 36 37 37 38 38 38 38 39 40 40 40 41 42 42 42 42 43 45 46 47 49 50 51 51 52 53 54 54 54 54 55 54 54 54
34 35 35 35 34 35 35 36 36 36 37 37 37 37 37 38 39 40 40 41 41 41 41 42 42 43 44 44 44 46 48 49 50 50 52 53 54 55 54 55 56 55 55
33 33 34 34 34 35 35 35 35 35 35 35 35 36 36 37 37 38 39 39 40 40 40 41 42 42 43 43 44 45 46 48 50 51 51 52 52 53 52 52 53 54 55
31 31 32 33 33 33 33 33 33 33 33 34 35 35 35 36 36 37 37 38 39 40 40 41 41 41 40 41 42 43 44 46 47 49 50 51 51 52 52 52 52 53 53
29 30 30 31 31 31 31 32 32 33 33 33 33 34 35 36 36 37 37 38 39 39 39 39 39 39 39 39 40 41 42 43 45 47 49 50 51 52 52 52 52 53 53
26 27 28 29 30 31 31 31 32 32 33 33 34 34 35 36 36 37 37 37 38 38 39 39 39 39 38 39 39 40 42 43 44 45 47 48 50 51 51 52 52 53 53
25 26 27 28 29 29 30 30 32 32 33 34 34 35 35 35 36 36 37 37 37 37 38 38 38 39 40 40 41 41 42 43 43 43 44 46 47 49 50 51 51 52 53
24 26 27 28 28 29 30 30 31 32 33 33 34 34 34 35 35 35 35 36 36 37 38 38 39 39 40 40 41 41 41 41 42 42 44 45 46 47 48 49 51 52 53
24 25 26 27 28 28 29 30 31 32 32 33 33 33 33 34 34 34 35 35 35 36 37 38 39 39 40 40 41 41 41 42 42 43 43 44 46 47 48 49 50 52 53
24 25 25 26 27 28 29 30 31 31 31 32 32 32 33 33 33 34 34 34 34 35 35 36 37 38 39 39 40 40 41 41 42 42 43 43 45 47 48 49 50 51 52
24 24 25 26 27 28 29 30 30 30 31 31 32 32 32 32 33 33 33 34 34 35 36 36 37 37 38 38 39 40 41 41 42 43 43 44 44 46 48 49 50 51 52
24 25 25 26 27 27 28 28 29 30 31 31 31 32 32 33 33 33 34 35 35 36 36 36 37 38 38 38 39 40 41 42 42 43 44 44 45 45 47 48 50 51 52
24 24 24 25 26 27 27 28 28 29 30 31 31 32 32 33 34 34 35 35 35 35 36 37 38 38 39 39 40 41 42 43 44 44 45 46 46 47 47 48 49 50 52
23 23 24 25 26 26 26 27 28 29 30 30 30 31 32 33 33 34 35 35 36 36 37 37 38 39 40 41 41 42 43 43 44 45 45 47 47 48 49 49 50 50 52
24 24 25 26 26 27 27 28 29 29 29 30 31 32 33 33 33 33 34 35 36 37 38 39 40 40 40 40 40 41 42 43 44 45 46 46 47 48 49 49 50 51 52
26 26 27 27 28 28 29 29 29 30 30 31 32 32 32 32 33 34 35 36 37 38 39 40 40 40 40 40 40 41 42 43 43 44 45 46 47 48 49 49 50 51 52
27 28 28 29 29 30 30 31 31 31 32 32 32 32 32 33 34 35 36 36 37 39 40 40 40 40 40 41 41 42 42 43 43 44 46 47 47 49 49 50 50 51 51
30 30 30 31 32 32 33 33 33 34 33 33 33 34 34 35 36 36 37 38 39 40 40 40 41 41 42 42 42 42 43 43 44 44 45 46 47 48 48 49 49 49 50
33 33 33 33 34 34 34 34 34 35 35 35 35 35 36 36 37 38 39 40 40 41 41 41 41 42 42 43 43 43 43 43 44 44 45 46 46 47 47 48 48 48 48
35 35 35 35 35 36 36 36 35 35 36 36 37 37 37 37 38 38 39 40 40 41 41 42 41 42 42 43 43 43 43 43 43 44 44 45 45 45 46 46 47 46 47
37 37 37 37 37 37 37 37 36 37 37 38 38 38 38 38 39 39 39 39 40 40 41 41 41 41 42 42 42 42 43 43 43 43 44 44 45 45 45 46 46 46 46
39 38 38 38 38 38 38 38 38 38 38 39 39 39 39 39 39 40 40 41 41 41 41 41 41 42 42 42 43 43 43 43 44 44 44 44 44 44 45 45 45 45 44
39 39 39 38 38 39 39 39 39 39 39 39 39 39 39 40 40 41 41 42 41 41 41 41 41 41 42 43 43 43 43 44 44 43 43 43 43 44 44 43 43 43 43
40 40 39 38 39 39 39 40 40 41 40 40 40 40 40 40 41 41 42 42 42 42 41 41 41 42 42 42 43 43 43 43 43 42 42 42 42 43 42 42 42 41 41
42 41 41 40 40 40 40 41 41 41 41 41 41 41 41 42 42 42 42 43 42 42 42 42 42 42 43 43 43 43 43 43 43 42 42 42 42 42 42 41 41 40 39

GEFSMW_500_meanwind_132.txt.gz
Wind_Speed
30 30 30 30 30 31 32 32 32 32 33 33 34 35 35 35 35 35 35 35 35 36 36 37 37 37 38 39 40 41 43 44 45 45 46 47 47 49 49 50 50 50 50
29 30 31 31 32 32 32 32 33 33 33 34 34 34 34 35 35 35 35 36 36 37 37 37 37 38 38 39 40 41 42 43 44 45 46 46 47 48 49 49 49 51 51
29 30 30 31 32 32 33 33 34 34 34 34 34 35 35 35 35 36 36 36 36 37 37 36 36 37 37 38 39 39 40 41 42 43 44 45 46 47 49 50 51 52 52
30 31 31 32 32 32 33 34 33 33 33 33 34 34 34 34 35 35 36 35 36 36 36 37 37 37 37 37 38 39 39 40 40 41 42 43 44 45 46 48 49 50 50
30 31 31 32 32 32 32 32 32 32 33 33 33 34 34 35 35 35 36 36 37 37 37 37 38 38 38 38 39 40 40 41 41 41 42 43 44 45 44 45 46 47 48
28 29 29 29 29 30 31 31 32 33 33 33 34 34 35 35 36 36 36 37 37 37 38 38 38 39 39 40 40 40 41 41 41 41 42 43 44 45 45 45 46 46 48
26 27 28 28 28 29 30 31 32 32 33 34 34 35 36 36 37 37 37 37 38 38 39 39 40 40 41 41 41 41 41 41 41 41 42 42 43 44 44 45 45 45 46
25 26 27 28 29 30 30 31 32 33 34 34 35 36 37 37 37 37 38 39 39 39 40 40 40 41 41 40 40 40 40 40 41 41 41 41 42 42 43 44 44 45 46
24 25 26 27 28 29 30 31 32 33 33 34 35 36 36 37 37 38 39 40 40 40 40 40 40 40 40 40 40 39 40 40 40 41 41 42 42 43 44 44 44 45 46
24 26 27 27 28 29 30 31 32 33 34 34 35 36 36 37 38 38 39 40 41 41 41 40 41 41 40 40 39 40 40 40 41 41 42 43 43 44 44 45 46 46 47
23 25 26 27 28 29 30 31 31 32 33 34 35 36 37 37 38 39 40 41 41 41 41 41 40 40 40 40 40 40 41 41 42 42 43 44 44 45 46 46 46 47 47
23 24 25 26 28 29 30 31 31 32 33 33 34 35 36 37 38 39 40 40 40 40 40 40 40 39 40 41 41 42 42 42 43 44 44 44 44 44 45 46 46 47 47
23 24 26 27 28 29 30 31 32 33 33 34 35 35 36 37 38 39 39 39 39 39 39 39 40 40 41 42 43 43 43 43 43 44 44 44 44 44 45 46 47 47 48
24 25 27 28 29 30 31 32 33 33 34 35 35 36 36 37 37 38 38 38 39 39 39 40 41 41 42 42 42 43 42 43 43 43 44 44 45 45 46 46 47 48 49
26 27 28 29 30 31 32 33 33 34 34 34 35 35 36 36 37 37 38 38 38 39 40 40 40 40 41 42 42 42 43 43 43 44 44 44 45 45 46 46 47 48 49
28 28 29 30 31 32 32 33 34 34 34 35 35 36 36 37 37 37 38 38 39 39 39 40 40 41 41 41 42 42 43 42 43 43 43 44 44 45 46 46 47 47 48
30 31 32 32 33 33 33 34 35 35 35 36 36 36 37 37 37 37 38 38 38 39 39 39 39 40 40 41 41 42 42 42 42 43 43 44 44 44 45 45 46 47 47
33 34 34 34 35 35 35 36 36 37 37 37 37 37 37 37 38 38 38 38 38 39 39 38 39 39 40 41 41 41 41 42 42 43 43 43 43 43 43 43 43 44 45
36 36 36 37 37 37 37 37 37 37 37 38 38 38 38 37 38 38 38 38 38 38 38 39 39 39 40 40 40 41 41 42 42 43 43 43 43 43 43 42 42 43 44
38 38 38 38 38 39 38 38 38 38 38 38 38 39 39 39 39 39 39 38 39 39 39 39 39 40 40 40 40 40 41 41 42 42 43 43 43 43 43 42 43 43 44
40 40 40 40 39 39 39 39 39 39 39 39 39 39 40 40 39 39 39 39 39 39 39 39 40 40 40 40 41 40 40 41 41 42 42 43 43 43 43 43 43 44 45
41 41 41 41 41 41 40 40 40 41 41 41 41 41 41 40 40 39 39 39 39 39 39 39 39 40 40 40 40 40 41 41 41 42 42 43 43 43 43 43 43 44 44
41 41 41 41 41 42 42 42 42 43 43 43 42 41 41 41 40 40 40 40 40 40 40 40 40 40 40 40 40 41 41 41 42 42 43 43 43 43 43 43 43 43 43
42 42 42 42 42 43 43 43 43 43 43 42 41 41 41 41 41 41 40 40 40 40 40 40 40 40 40 40 41 41 41 41 42 42 43 43 43 43 43 43 43 43 42
43 43 43 43 43 43 43 43 43 42 41 41 40 41 41 41 41 41 41 41 41 41 41 41 41 40 40 40 41 41 42 42 43 43 43 43 43 43 43 43 43 42 42
44 44 44 43 43 43 43 43 43 42 41 41 40 40 41 41 41 41 41 41 41 41 41 41 40 40 40 41 41 41 42 42 43 43 43 43 43 43 42 42 42 41 40

GEFSMW_500_meanwind_138.txt.gz
Wind_Speed
27 28 30 30 30 31 32 32 32 32 33 33 33 33 33 32 33 33 33 33 33 33 33 33 33 34 34 35 36 36 36 37 38 38 38 38 39 39 40 41 42 44 45
28 28 29 30 31 31 32 33 33 33 33 33 33 33 33 33 33 33 33 33 33 33 33 33 33 34 34 35 36 37 37 38 38 38 37 37 37 39 40 42 43 43 44
28 28 29 29 30 31 32 33 34 34 34 34 34 34 33 33 34 34 34 33 33 33 33 33 34 35 35 36 37 37 37 38 38 39 39 39 39 39 40 41 42 43 44
28 28 29 29 30 31 32 33 33 33 34 34 34 34 33 33 33 33 33 33 33 34 34 34 35 36 37 37 37 37 38 38 39 39 40 40 40 39 39 41 42 42 43
27 28 29 30 31 32 32 33 33 33 34 34 34 34 34 34 34 34 35 35 36 36 36 37 38 39 39 38 38 39 39 39 40 40 40 41 40 40 39 39 40 41 42
27 28 29 29 30 31 32 33 34 34 34 35 35 35 36 36 36 36 36 37 38 38 38 39 39 40 40 40 40 40 41 41 41 41 41 41 41 41 41 41 40 41 41
27 27 28 29 30 31 32 32 33 33 34 35 36 36 36 37 38 38 39 40 40 40 41 41 42 42 41 41 41 41 42 42 42 42 42 42 42 42 42 42 41 41 42
26 28 28 29 29 30 31 32 32 33 35 36 36 37 38 39 39 40 41 41 41 42 42 43 43 43 44 44 43 43 43 43 43 43 43 43 43 43 43 43 43 43 43
26 27 28 29 29 30 30 31 33 34 36 36 37 38 39 40 41 41 42 42 43 43 43 44 44 45 45 45 45 45 45 44 44 44 44 44 44 44 44 44 44 44 44
24 25 26 28 29 30 31 32 34 34 35 37 38 39 40 41 42 43 43 44 44 45 46 46 46 46 46 45 46 46 45 45 44 44 44 44 44 45 45 46 46 46 46
23 25 26 27 29 31 32 34 35 36 37 38 38 39 40 41 42 43 44 44 45 45 45 46 46 46 46 46 46 45 45 45 45 44 44 45 45 46 46 47 47 47 47
23 25 27 28 29 30 31 33 34 35 36 37 38 39 40 41 42 43 44 44 44 45 45 45 46 46 47 46 46 45 45 45 44 45 45 45 46 46 47 47 47 47 46
25 27 28 29 30 31 32 33 34 36 37 38 39 40 41 42 43 43 43 44 44 44 45 46 46 46 46 45 45 45 45 45 45 45 45 46 46 46 46 46 46 45 46
27 29 30 31 32 33 34 35 36 38 39 40 41 42 42 43 43 43 44 44 44 45 45 45 45 44 44 45 45 44 44 44 45 45 45 46 46 45 45 45 45 45 45
30 31 32 33 34 35 36 37 38 39 40 40 41 42 43 43 44 44 44 44 44 44 44 43 43 43 43 43 43 43 43 43 44 44 45 45 44 44 44 44 44 44 44
33 33 35 36 37 38 38 39 40 40 41 41 42 42 43 44 44 44 44 44 44 44 44 43 43 43 43 43 43 43 43 43 43 43 43 44 43 43 43 43 43 44 44
35 36 37 38 38 40 41 41 42 43 43 43 43 43 44 44 44 44 44 44 44 43 43 42 42 42 42 43 43 43 43 43 43 43 43 43 42 42 43 43 43 44 44
38 39 40 40 41 42 42 42 43 43 43 44 44 44 44 45 45 45 44 44 44 43 43 43 43 43 43 43 43 44 43 43 43 42 42 42 42 42 42 43 43 44 44
39 40 41 42 43 43 44 44 45 45 45 45 45 46 46 46 45 45 45 45 44 44 44 43 43 43 43 43 43 44 43 43 42 42 41 42 42 43 43 43 43 44 45
41 42 43 44 44 45 46 46 46 46 46 46 46 46 46 46 45 45 45 45 44 44 44 43 44 44 44 44 43 43 43 43 42 42 42 42 43 43 43 43 44 44 44
43 43 44 45 46 46 47 47 47 47 47 47 47 47 47 46 46 45 45 45 44 44 44 43 43 43 43 43 43 43 43 42 42 42 42 42 43 43 44 44 44 44 44
44 45 46 46 47 48 48 48 48 48 48 48 47 47 47 46 45 44 44 44 44 43 43 42 42 42 42 43 43 43 42 42 42 42 43 43 44 44 44 44 44 44 44
47 47 47 48 48 48 49 49 48 48 48 47 47 47 46 45 45 44 44 43 43 42 42 42 42 42 42 42 42 42 41 41 41 42 43 43 43 43 44 44 44 44 44
48 49 49 49 49 49 49 49 49 48 48 47 46 46 45 44 43 43 43 43 42 41 41 41 41 41 41 41 40 40 40 41 41 42 42 43 43 43 44 43 43 43 43
50 50 50 50 50 49 49 49 48 48 47 46 45 45 44 43 43 42 42 42 42 41 41 41 41 40 40 40 40 40 41 41 41 41 41 42 42 42 43 43 43 42 42
51 51 51 50 49 49 48 47 47 47 46 45 44 44 43 43 42 42 41 41 41 41 41 41 40 40 40 40 40 41 41 41 40 40 40 40 41 41 41 41 41 42 42

GEFSMW_500_meanwind_144.txt.gz
Wind_Speed
26 26 27 27 28 29 29 31 31 31 31 32 32 32 32 33 34 35 34 34 34 34 34 33 33 33 33 33 33 33 33 33 34 34 35 35 36 37 37 37 37 38 39
26 26 26 27 28 29 30 31 32 32 32 32 32 32 33 33 33 34 34 33 33 34 34 33 33 33 33 34 34 34 34 35 36 37 37 37 38 38 38 38 39 39 39
25 27 27 28 29 30 31 31 32 32 32 32 33 33 34 34 34 33 33 33 33 32 32 33 33 33 34 34 35 36 36 36 37 38 39 39 39 39 40 40 40 40 41
24 26 27 28 29 30 31 31 32 33 33 33 34 34 34 33 33 33 33 33 33 34 34 34 34 35 36 36 37 37 38 39 39 40 40 41 41 41 40 41 42 42 42
25 26 27 27 28 29 30 30 32 33 33 34 34 34 33 33 33 33 33 34 35 35 35 36 37 37 38 39 39 40 40 41 41 41 42 42 42 42 41 41 42 43 44
24 25 26 26 27 28 29 30 30 31 32 32 32 33 33 32 33 34 35 35 36 37 38 38 39 40 40 41 41 42 42 43 43 43 43 43 43 43 43 42 42 42 44
23 24 25 26 27 28 30 31 32 32 32 32 33 33 33 34 35 36 37 37 38 39 40 41 42 43 43 43 44 44 45 45 45 45 45 45 45 45 45 44 44 43 44
23 24 25 27 28 29 30 31 32 32 32 33 34 35 35 36 37 38 39 39 40 42 43 44 44 45 45 45 46 46 46 46 46 46 46 46 46 46 46 46 46 45 45
22 23 24 25 27 28 29 29 30 30 31 32 34 35 37 37 38 40 41 42 43 44 46 46 46 46 46 47 47 47 48 48 48 48 48 47 47 47 47 47 47 46 46
21 21 23 24 26 27 28 29 31 32 32 33 34 35 37 38 39 40 41 43 44 45 46 46 46 47 47 48 48 49 49 49 49 49 49 49 49 49 48 48 47 47 47
21 22 24 25 26 27 28 29 31 32 33 34 35 36 37 39 40 41 42 44 45 45 46 47 47 48 48 48 49 49 49 49 49 49 50 50 49 49 48 48 48 48 48
22 23 24 25 26 27 29 30 32 33 35 36 37 38 39 41 42 43 44 45 46 46 47 47 48 48 48 49 50 50 50 50 50 50 50 49 48 48 48 48 47 47 47
22 23 24 26 27 28 30 31 33 35 37 38 39 40 41 43 43 44 46 46 47 47 48 48 49 49 49 50 50 50 49 49 49 49 49 49 48 48 48 47 47 47 48
23 24 26 27 29 30 32 33 35 36 37 39 41 42 43 43 44 46 47 48 48 48 49 49 49 50 50 50 50 50 49 49 49 49 49 48 48 48 47 47 47 47 47
26 27 28 30 31 33 34 36 37 38 39 41 42 43 44 45 46 47 48 48 49 49 49 50 50 50 50 50 50 50 49 49 48 48 48 48 47 47 47 46 46 46 46
30 31 32 33 34 36 37 39 40 40 41 42 43 44 45 47 48 49 49 50 50 50 51 51 51 51 51 50 49 49 49 48 48 48 47 47 47 46 46 46 45 45 45
32 33 35 36 37 38 39 40 41 42 43 44 44 46 47 48 49 50 50 50 51 51 51 51 51 51 50 50 49 49 48 48 48 47 46 46 46 46 45 45 45 45 44
34 35 37 38 39 40 41 42 42 43 44 45 46 47 48 49 49 50 50 50 50 51 51 51 51 50 50 49 49 49 48 47 46 46 46 45 45 44 44 44 44 44 44
37 38 39 40 41 42 42 43 44 45 46 47 48 49 50 50 50 50 51 51 51 51 51 51 50 49 49 49 48 47 47 46 46 45 45 44 44 43 43 43 43 43 43
39 40 41 42 43 44 44 45 46 47 48 49 50 51 51 52 52 52 52 51 51 51 50 50 49 48 47 47 47 46 45 44 44 44 44 44 44 43 43 43 43 43 43
41 42 43 44 45 46 47 48 48 49 50 51 51 52 53 53 53 53 52 51 50 50 49 48 47 46 46 46 45 44 43 43 43 43 42 43 43 43 43 43 43 43 43
43 44 45 46 47 48 49 50 50 51 51 52 53 53 53 53 53 52 51 51 50 49 48 46 45 45 45 44 43 43 43 42 42 42 42 42 43 43 42 42 42 42 42
45 47 47 48 49 49 50 51 51 52 53 53 53 53 53 53 52 51 50 50 49 48 46 45 44 44 43 43 43 43 42 42 42 41 41 42 42 42 42 42 41 41 41
47 48 49 50 50 51 51 52 52 53 53 53 53 53 52 52 51 50 49 48 47 47 46 45 44 43 43 43 43 42 42 42 41 41 41 41 41 41 41 41 41 41 41
49 50 50 51 51 52 52 52 52 52 53 52 52 51 51 50 49 48 48 47 46 46 45 44 43 43 43 43 42 41 41 41 41 41 41 41 41 40 40 40 40 40 40
50 51 51 51 51 51 51 51 51 52 52 51 51 50 50 50 49 48 47 46 45 44 44 43 43 42 42 42 41 41 40 40 40 39 39 39 39 39 39 39 39 39 40

GEFSMW_500_meanwind_150.txt.gz
Wind_Speed
30 30 30 30 29 29 29 30 31 31 31 31 32 32 32 32 33 32 33 33 34 35 34 33 33 33 34 34 33 33 33 34 34 35 35 35 36 36 37 37 37 37 38
28 30 31 31 31 30 30 31 31 32 33 33 33 32 33 34 34 34 35 35 35 35 34 33 33 34 34 34 34 35 36 36 37 37 37 37 37 38 39 39 39 39 39
28 29 29 31 32 32 32 32 33 33 34 34 34 34 35 35 35 36 36 35 35 34 34 34 34 35 35 36 36 37 38 38 39 39 40 40 40 40 40 41 41 41 41
28 29 29 30 32 33 33 33 33 33 33 34 34 35 36 36 36 36 36 35 35 35 35 35 36 36 36 37 37 37 38 39 40 41 41 42 43 42 42 43 43 44 44
27 28 30 30 32 32 33 34 34 34 34 34 35 35 36 36 36 37 35 35 36 36 36 36 37 38 38 39 40 40 41 41 42 42 43 43 44 44 44 44 45 45 46
26 27 29 30 31 31 32 32 33 33 34 34 34 35 36 36 36 35 34 34 35 35 36 37 38 39 40 41 41 42 43 44 44 44 45 45 46 46 47 47 47 47 48
26 27 28 29 30 30 31 31 32 33 33 33 34 34 34 34 34 34 34 35 35 36 37 39 39 40 41 42 43 44 45 46 46 47 47 48 48 49 49 49 49 50 50
25 26 27 28 29 30 31 32 33 33 33 33 33 33 34 34 34 34 36 37 38 39 40 41 41 42 43 44 45 47 47 48 49 49 49 50 50 50 51 51 52 52 51
25 26 27 28 29 30 31 32 32 32 32 33 33 34 35 35 36 37 38 39 40 41 42 42 43 44 45 46 47 48 48 49 50 50 50 51 51 52 52 53 53 53 52
25 27 28 28 29 29 29 30 31 32 32 33 34 35 36 37 38 39 40 41 42 42 43 44 44 45 47 48 49 49 50 51 51 51 52 52 53 53 54 54 54 54 54
25 26 27 28 29 30 30 31 31 32 33 34 35 36 38 38 39 40 41 42 42 43 44 45 46 47 48 49 50 51 51 52 52 52 52 53 53 54 54 55 54 54 54
25 26 27 28 29 30 31 31 32 33 34 35 36 37 38 39 40 41 42 43 44 44 45 46 47 48 49 50 51 51 51 52 52 53 53 54 54 55 55 54 53 53 53
27 28 28 29 30 31 32 33 33 35 36 37 38 39 40 41 42 43 43 44 45 46 47 47 48 50 51 51 52 52 52 53 53 54 54 55 55 55 54 54 53 53 53
29 29 30 31 31 32 33 34 35 36 38 39 40 42 43 44 44 44 45 46 47 48 49 50 51 51 52 53 54 54 54 54 55 55 55 55 55 54 54 53 52 52 51
30 30 31 32 32 33 34 36 37 38 39 41 42 43 45 46 46 46 47 48 49 51 51 52 53 54 54 55 56 56 56 56 55 56 55 55 55 54 53 52 51 51 50
30 31 32 32 33 34 36 37 38 40 41 42 43 44 45 46 47 47 49 50 51 52 53 53 54 55 56 56 57 57 56 56 55 55 55 55 54 53 52 51 50 50 49
32 33 34 35 36 37 38 40 41 42 43 44 45 46 47 48 48 49 51 51 52 53 54 55 55 56 56 57 57 57 57 55 54 54 54 53 52 51 51 50 50 49 48
34 35 36 37 38 39 40 42 43 44 45 45 46 47 48 49 50 51 52 53 54 55 56 56 56 56 57 57 58 57 56 55 53 53 52 51 50 49 49 49 48 48 47
36 37 39 40 41 42 43 44 45 46 47 47 48 49 50 51 52 54 55 55 56 56 57 57 57 57 57 58 58 57 55 53 52 51 50 49 48 48 48 47 46 46 46
39 40 41 42 43 44 45 46 47 48 48 49 50 51 53 54 55 56 56 57 57 57 57 57 58 58 58 58 57 56 54 52 51 50 49 48 47 46 46 46 45 45 44
41 42 43 44 46 47 47 48 49 49 50 51 52 53 54 55 56 57 57 58 58 57 58 58 58 58 58 57 56 55 53 52 50 49 48 47 46 45 45 45 44 44 43
44 45 46 47 48 49 49 50 51 51 52 53 54 55 56 56 57 57 57 58 58 58 58 59 58 58 57 55 54 53 52 51 49 47 46 45 44 44 43 43 42 42 42
46 47 48 49 49 50 51 52 53 53 54 55 56 56 57 57 58 58 58 58 58 58 59 59 58 56 54 53 53 52 51 49 48 46 45 44 43 42 41 41 41 41 41
49 50 50 51 51 52 53 54 55 55 56 56 56 57 57 58 58 58 58 58 58 58 57 57 56 54 52 51 51 50 49 48 46 45 44 42 42 42 41 40 40 40 40
51 51 52 52 53 54 55 55 56 56 56 56 56 57 57 58 57 57 57 57 57 57 56 56 55 53 52 51 50 49 47 46 44 43 43 42 42 41 41 40 40 39 39
52 53 53 53 54 54 55 55 56 56 56 56 56 57 57 57 56 56 56 56 56 55 55 54 54 53 51 50 48 47 46 45 44 43 42 42 41 41 41 40 40 39 38

GEFSMW_500_meanwind_156.txt.gz
Wind_Speed
27 27 27 27 29 30 30 30 30 31 32 32 31 32 32 32 31 31 32 33 33 33 33 33 32 32 32 32 32 32 32 32 32 33 33 34 34 34 35 36 36 37 37
27 27 28 28 28 29 29 31 32 32 33 33 33 33 34 34 33 33 33 33 34 34 33 33 32 33 33 32 32 32 31 32 33 33 34 34 34 35 37 37 38 38 38
27 27 27 27 28 28 29 29 31 31 33 34 34 35 35 35 34 35 34 34 34 34 33 33 33 33 32 32 32 32 33 34 35 35 36 36 37 37 38 38 39 40 41
26 27 27 27 28 29 30 31 31 32 32 33 35 36 37 37 36 36 35 36 35 35 34 33 33 33 33 33 34 35 36 36 37 38 39 39 39 40 40 40 41 42 43
25 26 27 28 29 29 30 31 32 32 33 34 35 35 36 36 36 35 36 35 36 35 34 34 34 35 35 35 36 37 38 38 39 40 40 41 42 42 43 43 44 45 46
23 25 26 27 29 30 31 32 33 34 34 34 34 34 34 35 36 36 36 35 35 35 35 35 36 36 37 38 39 39 40 41 42 42 43 43 44 45 45 46 47 48 48
22 24 25 27 28 29 30 32 34 34 35 34 34 34 35 36 36 36 36 36 36 36 36 37 38 38 39 40 41 42 42 43 44 44 45 45 46 47 48 48 49 49 49
23 25 26 28 29 30 31 33 34 34 34 34 34 35 35 36 36 37 37 37 37 38 38 39 40 41 42 43 43 44 45 46 46 47 47 48 48 49 50 50 51 51 50
24 25 26 28 29 30 31 32 34 34 34 35 35 36 36 37 37 37 37 37 38 39 41 42 43 44 45 46 47 47 48 48 48 49 49 50 51 52 52 52 52 52 52
24 26 27 28 29 30 31 33 34 35 35 36 37 37 37 38 39 39 39 40 41 42 43 44 45 46 47 48 48 48 48 49 50 50 51 52 52 53 53 53 53 54 54
24 26 27 28 29 30 31 32 34 35 36 37 38 38 38 39 40 41 41 42 43 44 45 46 47 47 48 49 49 49 50 51 51 52 53 53 54 54 54 54 55 55 56
25 26 27 28 29 30 31 33 34 35 36 37 38 39 40 40 41 41 43 44 45 46 46 47 48 49 50 50 51 52 52 53 54 54 55 55 55 55 55 56 56 56 57
27 28 28 29 29 30 32 33 34 35 36 37 38 39 40 40 41 42 43 44 46 47 47 48 49 50 50 52 53 53 54 55 55 56 56 56 56 57 57 57 58 58 59
28 29 29 30 31 32 33 34 35 36 36 37 38 39 40 41 42 43 44 45 46 47 48 49 50 51 52 53 55 55 56 57 57 57 57 57 58 58 58 59 60 60 60
28 29 30 31 32 32 33 34 35 36 36 37 38 39 40 42 43 45 46 47 48 49 50 51 52 53 54 55 57 58 58 58 58 58 58 59 59 60 61 61 61 61 60
29 30 31 32 32 33 34 35 36 37 37 38 40 41 42 43 45 47 48 48 49 51 52 53 54 55 56 57 59 60 59 59 59 60 60 60 61 61 61 61 60 59 58
30 31 32 33 33 34 35 37 38 39 39 40 41 43 44 45 47 48 49 50 51 52 54 55 56 57 58 59 60 60 60 60 60 60 60 60 60 60 60 59 59 57 56
32 33 33 34 35 35 37 38 39 40 41 42 43 45 46 48 49 50 51 52 53 54 55 56 57 57 58 58 59 59 60 60 60 60 60 60 59 59 58 57 56 55 54
34 34 35 36 36 37 38 39 40 42 43 44 45 46 47 49 49 50 52 53 54 55 56 57 57 57 58 59 59 60 60 60 59 59 59 59 58 57 56 55 54 53 52
35 36 37 37 38 39 40 41 42 43 45 46 47 48 49 50 51 52 53 54 55 55 56 57 58 59 59 59 60 61 61 60 59 58 58 57 56 55 54 54 53 51 50
37 38 39 40 41 42 42 43 44 46 47 48 49 50 50 51 52 53 54 55 56 57 58 58 59 59 60 60 60 60 60 59 57 56 55 54 54 53 52 52 51 50 49
40 41 42 42 43 44 45 46 47 48 49 49 50 50 51 52 53 54 55 56 57 58 58 58 58 59 59 59 59 58 58 57 56 54 54 52 52 51 51 50 49 49 48
42 43 44 45 46 47 48 48 49 49 50 50 50 51 52 53 54 55 56 56 57 57 57 57 58 58 58 58 57 56 55 55 54 53 53 52 51 51 50 50 49 48 47
45 46 47 48 48 49 49 49 50 50 50 50 51 52 53 54 55 55 55 56 56 57 57 57 57 57 56 55 55 55 54 54 53 52 51 51 50 50 49 48 47 46 45
47 48 48 48 49 49 49 49 50 50 51 52 52 53 54 54 54 54 55 55 56 56 56 56 56 55 54 53 53 53 53 52 51 50 49 48 48 48 47 46 45 44 43
47 47 47 48 48 48 49 49 50 51 52 52 53 53 53 53 54 54 54 54 55 55 56 56 55 55 54 53 52 51 51 50 49 48 46 46 45 45 44 43 43 42 41

GEFSMW_500_meanwind_162.txt.gz
Wind_Speed
30 31 31 31 31 32 32 32 33 33 33 32 32 32 33 34 33 33 33 33 34 35 35 34 34 34 33 33 33 33 33 33 32 33 33 33 33 33 33 34 35 35 36
29 29 30 30 31 31 31 31 31 32 33 34 33 33 34 35 35 36 36 35 35 35 35 35 35 35 35 34 34 34 34 34 35 35 35 35 35 35 35 36 37 38 38
27 28 29 29 30 31 31 31 32 31 33 34 34 34 34 35 35 35 35 36 37 36 35 35 35 36 36 35 35 35 36 36 37 37 37 37 36 36 36 37 38 39 40
25 27 28 29 29 30 31 31 32 33 33 34 35 35 35 36 36 37 37 37 37 37 36 35 35 35 36 36 36 36 36 37 38 38 38 38 39 39 38 39 40 41 41
25 26 27 28 29 30 31 32 32 33 34 35 36 36 35 36 36 37 37 37 37 36 37 37 36 36 36 37 37 37 37 38 38 38 39 40 41 41 42 41 42 42 43
24 24 26 27 28 29 30 32 33 33 34 35 36 37 37 37 37 38 38 38 38 38 38 38 38 38 39 39 40 39 39 39 40 40 41 42 43 44 44 44 45 45 46
22 24 26 27 27 29 29 30 32 33 34 35 36 36 37 38 38 39 39 40 40 40 40 39 39 40 41 41 41 41 41 41 41 42 44 45 46 46 47 48 48 48 49
21 23 25 26 27 28 30 31 32 33 34 35 36 37 37 38 38 39 39 40 40 41 41 41 40 40 41 41 41 42 43 43 44 45 46 47 48 49 50 51 51 51 51
21 23 24 26 27 29 31 33 34 34 35 36 37 37 38 38 39 39 40 40 40 40 41 41 41 41 42 42 43 44 45 45 46 47 48 49 50 51 52 53 54 54 54
21 23 25 26 27 29 31 33 35 35 36 37 38 39 39 40 40 40 40 41 41 41 42 42 42 43 43 44 44 46 46 47 48 49 50 51 53 54 55 55 56 56 56
23 24 25 27 28 29 31 33 35 36 37 37 38 39 40 41 41 42 42 42 43 43 43 44 44 45 45 46 46 48 49 50 51 52 52 53 54 54 55 56 57 57 58
25 26 27 29 30 31 32 33 34 36 37 38 39 40 41 41 42 42 43 44 44 45 45 46 47 47 48 48 49 50 51 52 52 53 54 54 55 56 57 58 58 59 60
27 28 30 30 31 32 33 34 34 36 37 38 38 39 40 41 42 43 44 44 45 46 47 48 49 49 49 50 51 51 52 53 54 55 56 57 58 58 59 60 61 62 62
29 29 30 31 32 33 34 35 36 37 37 38 39 39 40 41 42 43 44 45 46 47 48 49 50 50 51 52 52 53 54 54 55 56 57 58 59 60 61 62 62 62 62
30 31 31 32 33 34 34 35 36 37 38 38 39 40 41 42 42 44 45 46 47 48 49 50 50 51 52 52 53 54 55 56 57 58 59 60 61 61 62 62 62 62 62
32 33 33 34 34 35 35 36 37 38 38 39 40 41 42 43 44 45 46 47 48 48 49 50 51 51 52 53 54 55 56 57 58 59 60 61 61 62 62 62 62 62 62
34 34 35 35 35 36 36 37 38 39 39 40 42 42 44 44 45 46 47 47 48 49 49 50 50 51 52 53 55 57 58 59 60 61 61 61 61 62 61 61 61 61 62
36 36 36 37 37 37 38 39 39 40 41 42 43 43 45 46 46 47 48 48 49 49 50 50 51 52 53 55 57 58 59 60 61 62 62 62 61 61 61 61 61 61 60
37 37 38 38 38 39 40 40 41 42 42 43 44 45 46 47 48 48 49 49 50 51 51 52 53 54 55 57 58 59 60 61 62 62 62 62 62 62 62 62 61 60 59
37 38 39 39 40 41 41 42 43 44 44 45 46 46 47 48 49 49 50 51 52 52 53 53 54 55 56 57 59 60 61 62 62 62 62 62 62 62 62 61 60 59 58
39 40 40 41 42 43 43 44 45 45 46 47 47 48 49 49 50 50 51 52 53 53 54 54 55 56 58 59 59 61 61 62 62 62 61 61 61 61 60 59 58 58 57
41 41 42 43 44 44 45 45 46 47 48 48 48 49 49 50 50 51 52 53 54 54 55 56 57 57 59 59 60 61 61 62 62 61 60 60 59 58 57 56 56 56 55
43 43 44 44 44 45 46 46 47 48 48 48 48 49 50 50 51 52 52 53 55 56 57 57 58 58 59 59 60 60 60 60 60 59 59 58 56 55 54 53 53 53 53
44 45 45 45 45 45 46 46 47 47 48 48 49 49 50 51 51 52 53 54 55 57 58 58 59 59 59 59 59 59 58 58 57 57 56 54 52 52 51 51 51 51 51
45 46 46 46 46 46 46 46 46 47 47 48 49 50 50 51 52 53 54 55 56 57 58 58 59 59 58 58 58 57 56 56 55 54 52 51 50 50 49 49 49 49 49
45 45 45 45 45 45 45 45 46 47 48 48 49 50 51 51 52 53 53 53 54 55 56 56 57 57 57 56 55 54 54 53 52 51 49 49 48 48 48 47 47 46 46

GEFSMW_500_meanwind_168.txt.gz
Wind_Speed
29 29 32 34 34 34 35 36 36 34 33 32 32 31 32 33 33 32 33 33 33 33 33 34 34 34 34 34 33 34 34 34 34 34 34 34 34 34 35 35 35 35 36
29 28 30 33 33 33 33 34 34 34 33 33 31 33 33 33 33 33 33 33 33 34 33 35 35 35 35 35 35 36 36 35 35 35 35 35 36 36 37 37 38 38 38
26 28 29 31 32 32 32 32 33 34 33 34 34 34 34 34 34 34 34 35 34 34 34 35 35 36 35 36 36 36 36 36 36 36 36 36 37 38 38 39 39 39 40
25 26 28 30 30 30 31 32 32 32 33 33 34 34 34 34 33 33 34 35 35 36 36 36 37 37 37 37 37 37 37 37 37 37 37 38 39 40 40 41 41 41 42
23 24 25 26 28 29 30 31 32 33 34 34 34 35 35 35 34 35 36 37 37 38 38 38 38 38 38 39 39 39 38 39 39 39 39 40 40 41 42 41 42 43 43
21 22 24 25 26 27 28 29 31 33 34 35 35 34 34 35 36 36 36 37 38 38 39 40 40 39 40 40 40 40 40 40 41 41 41 42 42 43 43 43 44 44 44
21 23 24 25 26 26 27 28 30 32 34 35 35 34 34 36 36 37 38 39 39 39 40 40 41 41 41 42 41 40 40 41 42 42 43 44 44 45 45 45 45 45 45
19 20 22 24 26 26 27 28 30 32 33 34 35 36 36 37 38 39 39 40 40 40 41 42 42 42 42 42 41 41 42 43 43 44 45 45 45 46 46 47 47 47 47
19 20 20 22 24 25 27 29 30 31 33 34 35 37 38 38 39 40 41 41 42 43 43 43 42 42 42 42 43 43 44 45 45 45 45 46 47 48 49 49 50 50 50
20 22 22 22 23 25 27 28 29 31 32 34 36 37 39 40 41 41 42 42 43 44 44 43 43 43 43 44 43 44 45 46 46 46 47 47 48 49 50 51 52 52 53
20 22 23 24 24 25 26 28 30 31 33 35 37 39 40 41 42 43 44 44 44 45 44 44 44 44 44 44 45 45 46 47 48 48 49 49 49 50 51 52 54 55 56
21 22 24 25 26 27 28 29 31 32 34 35 36 38 39 40 42 43 44 44 45 46 46 46 45 46 46 46 47 47 48 49 50 50 51 51 52 53 54 55 56 58 59
22 23 24 26 27 28 30 31 33 34 36 37 37 38 39 40 41 42 43 44 45 45 46 47 47 47 48 49 49 49 50 51 51 52 53 54 55 56 57 58 59 60 61
24 25 27 28 29 30 31 33 34 35 36 37 38 39 40 41 41 42 43 44 45 45 47 48 48 49 50 50 51 51 52 53 53 54 55 55 56 57 58 60 61 62 62
27 28 29 30 31 32 33 34 35 36 37 38 39 40 41 41 42 43 44 44 45 46 47 48 49 50 51 51 52 52 53 54 54 55 55 56 57 59 60 61 62 62 63
29 30 31 32 33 34 35 35 36 36 38 39 40 41 41 42 43 44 44 45 46 47 48 49 50 50 51 52 53 53 54 54 55 56 56 57 59 60 61 62 63 64 65
31 32 33 33 34 35 36 36 37 38 39 40 41 42 43 43 44 45 45 46 47 47 48 49 50 51 51 52 53 53 54 55 55 56 57 59 60 61 62 63 64 65 66
33 34 34 35 36 37 37 38 39 40 41 41 42 43 44 44 45 45 46 47 47 47 48 49 50 51 51 52 53 54 54 55 56 57 58 60 61 62 63 64 65 66 66
35 35 36 36 37 39 40 40 40 41 42 42 43 44 44 45 46 46 46 47 47 48 49 49 50 51 52 53 54 55 56 56 57 58 59 61 62 63 64 65 66 66 66
35 36 37 37 38 39 40 41 41 42 42 43 44 44 45 45 46 46 47 47 47 48 48 49 50 51 53 54 55 56 57 57 57 58 59 60 62 62 63 64 64 64 63
36 37 38 38 39 40 41 41 42 43 44 44 44 45 45 46 46 46 47 47 47 48 49 50 50 51 52 53 54 55 56 56 57 58 58 59 61 61 62 62 62 62 61
38 39 39 40 40 41 42 42 43 44 45 45 45 45 46 46 46 47 47 47 48 49 49 50 50 51 52 53 54 55 56 56 57 57 58 59 60 60 60 60 59 59 59
41 41 42 42 42 43 43 44 44 44 45 45 45 46 46 46 46 47 47 48 48 49 50 50 51 52 53 54 54 55 55 56 57 58 58 58 58 58 57 56 56 56 55
43 43 43 43 43 43 44 44 44 45 45 45 45 45 45 46 46 46 47 48 48 49 50 51 52 53 53 53 53 53 54 56 56 57 57 56 56 55 54 53 53 52 52
44 44 44 44 44 44 44 44 44 44 45 45 44 44 45 45 46 47 47 48 49 50 51 52 52 53 52 52 53 53 54 54 55 55 54 53 52 51 51 50 49 49 49
45 45 45 45 45 45 45 45 45 45 45 45 45 45 45 46 47 48 48 49 49 50 51 52 52 52 52 52 52 52 52 53 53 52 51 50 49 48 47 46 46 46 46